XE2VP-WX Weather Reports


time (UTC)temp
F
wind
direction
speed
knots
gust
knots
rain 1hr
in
rain 24hr
in
rain mn
in
humidity
%
barometer
mb
20260506213353 100 92 4.3 7.8 0.00 0.00 0.00 14 937.2
20260506213252 100 61 4.3 9.6 0.00 0.00 0.00 14 937.2
20260506213152 100 247 5.2 9.6 0.00 0.00 0.00 14 937.2
20260506213053 100 63 5.2 9.6 0.00 0.00 0.00 15 937.3
20260506212953 100 33 5.2 9.6 0.00 0.00 0.00 15 937.2
20260506212852 100 263 5.2 9.6 0.00 0.00 0.00 15 937.3
20260506212753 100 42 5.2 9.6 0.00 0.00 0.00 15 937.3
20260506212653 100 34 6.1 17.4 0.00 0.00 0.00 15 937.3
20260506212552 100 36 6.1 19.1 0.00 0.00 0.00 16 937.3
20260506212453 100 37 7.0 20.9 0.00 0.00 0.00 16 937.4
20260506212352 100 29 7.8 20.9 0.00 0.00 0.00 16 937.4
20260506212253 100 214 7.8 20.9 0.00 0.00 0.00 16 937.4
20260506212153 100 40 7.8 20.9 0.00 0.00 0.00 15 937.4
20260506212053 100 42 7.8 20.9 0.00 0.00 0.00 14 937.4
20260506211953 100 175 7.8 20.9 0.00 0.00 0.00 14 937.4
20260506211853 100 178 7.8 20.9 0.00 0.00 0.00 14 937.4
20260506211754 100 225 7.8 20.9 0.00 0.00 0.00 13 937.4
20260506211653 100 177 7.0 20.9 0.00 0.00 0.00 13 937.4
20260506211553 100 147 6.1 20.9 0.00 0.00 0.00 13 937.4
20260506211453 100 222 6.1 26.1 0.00 0.00 0.00 13 937.5
20260506211353 100 44 5.2 26.1 0.00 0.00 0.00 14 937.5
20260506211253 100 224 5.2 26.1 0.00 0.00 0.00 14 937.5
20260506211153 100 65 5.2 26.1 0.00 0.00 0.00 14 937.5
20260506211053 100 50 5.2 26.1 0.00 0.00 0.00 15 937.6
20260506210952 100 36 5.2 26.1 0.00 0.00 0.00 15 937.6
20260506210853 100 39 5.2 26.1 0.00 0.00 0.00 14 937.6
20260506210753 100 55 5.2 26.1 0.00 0.00 0.00 16 937.7
20260506210654 100 43 5.2 26.1 0.00 0.00 0.00 16 937.6
20260506210553 100 46 5.2 26.1 0.00 0.00 0.00 16 937.6
20260506210454 100 225 4.3 18.2 0.00 0.00 0.00 16 937.7
20260506210353 100 49 4.3 18.2 0.00 0.00 0.00 16 937.7
20260506210253 100 68 4.3 18.2 0.00 0.00 0.00 16 937.7
20260506210153 100 46 3.5 18.2 0.00 0.00 0.00 16 937.7
20260506210053 100 53 3.5 18.2 0.00 0.00 0.00 15 937.7
20260506205954 100 71 3.5 18.2 0.00 0.00 0.00 13 937.7
20260506205853 100 203 3.5 18.2 0.00 0.00 0.00 13 937.6
20260506205754 100 108 3.5 18.2 0.00 0.00 0.00 12 937.6
20260506205653 100 212 3.5 8.7 0.00 0.00 0.00 12 937.6
20260506205553 100 241 3.5 8.7 0.00 0.00 0.00 13 937.7
20260506205454 101 128 3.5 16.5 0.00 0.00 0.00 13 937.7
20260506205353 101 227 3.5 16.5 0.00 0.00 0.00 13 937.7
20260506205253 101 55 3.5 16.5 0.00 0.00 0.00 13 937.7
20260506205153 101 226 3.5 16.5 0.00 0.00 0.00 13 937.7
20260506205053 101 225 3.5 16.5 0.00 0.00 0.00 14 937.7
20260506204954 101 225 3.5 16.5 0.00 0.00 0.00 14 937.7
20260506204853 101 226 4.3 16.5 0.00 0.00 0.00 14 937.7
20260506204754 101 225 4.3 16.5 0.00 0.00 0.00 14 937.8
20260506204652 101 231 4.3 16.5 0.00 0.00 0.00 15 937.8
20260506204552 101 217 5.2 16.5 0.00 0.00 0.00 15 937.8
20260506204451 101 241 5.2 9.6 0.00 0.00 0.00 15 937.9
20260506204352 101 238 5.2 9.6 0.00 0.00 0.00 13 937.9
20260506204252 101 295 5.2 9.6 0.00 0.00 0.00 10 937.9
20260506204152 101 229 5.2 17.4 0.00 0.00 0.00 9 937.9
20260506204052 101 252 5.2 17.4 0.00 0.00 0.00 9 937.9
20260506203948 101 328 5.2 17.4 0.00 0.00 0.00 9 937.9
20260506203847 101 354 4.3 17.4 0.00 0.00 0.00 8 937.9
20260506203748 101 6 4.3 17.4 0.00 0.00 0.00 9 937.9
20260506203646 101 244 3.5 17.4 0.00 0.00 0.00 9 937.9
20260506203546 101 18 3.5 17.4 0.00 0.00 0.00 9 938.0
20260506203446 101 227 3.5 17.4 0.00 0.00 0.00 9 938.0
20260506203346 101 334 3.5 17.4 0.00 0.00 0.00 8 938.0
20260506203246 101 227 3.5 17.4 0.00 0.00 0.00 8 938.0
20260506203146 101 62 2.6 14.8 0.00 0.00 0.00 8 938.0
20260506203046 101 18 3.5 15.6 0.00 0.00 0.00 8 938.0
20260506202946 101 225 3.5 15.6 0.00 0.00 0.00 8 938.0
20260506202846 101 224 3.5 15.6 0.00 0.00 0.00 8 938.0
20260506202746 101 226 3.5 15.6 0.00 0.00 0.00 8 938.0
20260506202646 100 226 3.5 15.6 0.00 0.00 0.00 8 938.0
20260506202546 101 174 3.5 15.6 0.00 0.00 0.00 8 938.0
20260506202446 101 164 3.5 15.6 0.00 0.00 0.00 8 938.1
20260506202346 101 325 3.5 15.6 0.00 0.00 0.00 8 938.1
20260506202246 100 226 3.5 15.6 0.00 0.00 0.00 8 938.1
20260506202147 100 345 3.5 15.6 0.00 0.00 0.00 8 938.1
20260506202046 100 229 3.5 15.6 0.00 0.00 0.00 8 938.2
20260506201946 100 243 3.5 6.1 0.00 0.00 0.00 8 938.2
20260506201846 100 299 3.5 16.5 0.00 0.00 0.00 8 938.2
20260506201747 100 23 3.5 16.5 0.00 0.00 0.00 8 938.2
20260506201646 100 327 3.5 16.5 0.00 0.00 0.00 8 938.2
20260506201546 100 226 3.5 16.5 0.00 0.00 0.00 8 938.2
20260506201446 100 10 3.5 16.5 0.00 0.00 0.00 9 938.2
20260506201346 100 226 3.5 16.5 0.00 0.00 0.00 9 938.3
20260506201247 100 228 3.5 16.5 0.00 0.00 0.00 9 938.2
20260506201146 100 252 3.5 16.5 0.00 0.00 0.00 9 938.2
20260506201046 100 268 3.5 16.5 0.00 0.00 0.00 9 938.2
20260506200946 100 188 3.5 16.5 0.00 0.00 0.00 8 938.2
20260506200846 100 40 3.5 6.1 0.00 0.00 0.00 9 938.3
20260506200747 100 19 3.5 6.1 0.00 0.00 0.00 8 938.3
20260506200646 100 39 3.5 6.1 0.00 0.00 0.00 8 938.3
20260506200546 99 94 3.5 6.1 0.00 0.00 0.00 9 938.3
20260506200446 99 175 3.5 6.1 0.00 0.00 0.00 11 938.3
20260506200346 99 169 3.5 6.1 0.00 0.00 0.00 11 938.3
20260506200247 99 166 2.6 6.1 0.00 0.00 0.00 11 938.4
20260506200146 99 144 2.6 6.1 0.00 0.00 0.00 12 938.5
20260506200046 99 167 2.6 6.1 0.00 0.00 0.00 12 938.5
20260506195946 99 165 2.6 6.1 0.00 0.00 0.00 15 938.6
20260506195846 99 205 2.6 6.1 0.00 0.00 0.00 15 938.6
20260506195747 99 354 3.5 6.1 0.00 0.00 0.00 16 938.7
20260506195647 99 131 3.5 6.1 0.00 0.00 0.00 16 938.7
20260506195546 99 91 3.5 7.0 0.00 0.00 0.00 14 938.7
20260506195447 99 40 3.5 7.0 0.00 0.00 0.00 13 938.6
20260506195346 99 227 3.5 7.0 0.00 0.00 0.00 12 938.6
20260506195247 99 354 3.5 7.0 0.00 0.00 0.00 11 938.6
20260506195147 99 344 3.5 7.0 0.00 0.00 0.00 12 938.6
20260506195046 99 343 3.5 7.0 0.00 0.00 0.00 12 938.6
20260506194947 99 318 3.5 7.0 0.00 0.00 0.00 11 938.7
20260506194847 99 342 3.5 7.0 0.00 0.00 0.00 10 938.6
20260506194747 98 40 3.5 7.0 0.00 0.00 0.00 11 938.7
20260506194647 98 16 3.5 7.0 0.00 0.00 0.00 12 938.7
20260506194546 98 21 3.5 7.0 0.00 0.00 0.00 15 938.8
20260506194443 98 195 3.5 7.8 0.00 0.00 0.00 16 938.8
20260506194342 98 175 3.5 7.8 0.00 0.00 0.00 16 938.8
20260506194243 98 351 3.5 7.8 0.00 0.00 0.00 16 938.8
20260506194141 98 30 3.5 7.8 0.00 0.00 0.00 18 938.9
20260506194041 98 62 3.5 7.8 0.00 0.00 0.00 19 938.9
20260506193941 98 56 3.5 7.8 0.00 0.00 0.00 20 939.0
20260506193841 98 70 3.5 7.8 0.00 0.00 0.00 21 939.0
20260506193741 98 61 3.5 7.8 0.00 0.00 0.00 21 939.0
20260506193641 98 357 3.5 7.8 0.00 0.00 0.00 21 939.1
20260506193540 97 12 3.5 7.8 0.00 0.00 0.00 21 939.1
20260506193441 97 40 3.5 7.8 0.00 0.00 0.00 21 939.2
20260506193342 98 35 3.5 7.8 0.00 0.00 0.00 21 939.3
20260506193241 97 38 3.5 7.8 0.00 0.00 0.00 21 939.3
20260506193142 97 38 4.3 7.8 0.00 0.00 0.00 20 939.3
20260506193041 97 277 4.3 8.7 0.00 0.00 0.00 19 939.3
20260506192941 97 234 5.2 9.6 0.00 0.00 0.00 18 939.3
20260506192842 97 97 5.2 9.6 0.00 0.00 0.00 18 939.3
20260506192741 97 41 5.2 10.4 0.00 0.00 0.00 19 939.3
20260506192641 97 27 5.2 10.4 0.00 0.00 0.00 20 939.3
20260506192541 97 5 5.2 10.4 0.00 0.00 0.00 20 939.4
20260506192441 97 1 4.3 10.4 0.00 0.00 0.00 20 939.4
20260506192341 97 12 4.3 10.4 0.00 0.00 0.00 20 939.4
20260506192241 97 4 4.3 10.4 0.00 0.00 0.00 21 939.4
20260506192141 97 357 3.5 10.4 0.00 0.00 0.00 20 939.4
20260506192041 97 6 3.5 10.4 0.00 0.00 0.00 20 939.4
20260506191941 97 13 2.6 10.4 0.00 0.00 0.00 20 939.4
20260506191841 97 27 2.6 10.4 0.00 0.00 0.00 18 939.4
20260506191742 97 335 1.7 5.2 0.00 0.00 0.00 16 939.4
20260506191641 97 6 1.7 5.2 0.00 0.00 0.00 21 939.5
20260506191541 97 195 1.7 5.2 0.00 0.00 0.00 22 939.5
20260506191441 97 159 1.7 5.2 0.00 0.00 0.00 23 939.5
20260506191341 97 194 1.7 5.2 0.00 0.00 0.00 22 939.6
20260506191241 97 154 1.7 5.2 0.00 0.00 0.00 22 939.6
20260506191141 97 130 1.7 5.2 0.00 0.00 0.00 22 939.6
20260506191042 96 142 1.7 7.8 0.00 0.00 0.00 23 939.6
20260506190941 96 146 2.6 8.7 0.00 0.00 0.00 24 939.6
20260506190842 96 198 2.6 8.7 0.00 0.00 0.00 23 939.7
20260506190742 96 243 2.6 8.7 0.00 0.00 0.00 24 939.7
20260506190641 96 191 2.6 8.7 0.00 0.00 0.00 25 939.7
20260506190542 96 265 3.5 8.7 0.00 0.00 0.00 25 939.8
20260506190442 96 219 2.6 8.7 0.00 0.00 0.00 25 939.8
20260506190341 95 313 2.6 8.7 0.00 0.00 0.00 25 939.8
20260506190242 95 54 2.6 8.7 0.00 0.00 0.00 25 939.8
20260506190141 95 7 2.6 8.7 0.00 0.00 0.00 25 939.8
20260506190042 95 25 2.6 8.7 0.00 0.00 0.00 26 939.8
20260506185941 95 207 2.6 7.8 0.00 0.00 0.00 26 939.8
20260506185841 95 73 2.6 7.8 0.00 0.00 0.00 26 939.8
20260506185742 95 41 3.5 7.8 0.00 0.00 0.00 25 939.8
20260506185641 95 44 3.5 7.8 0.00 0.00 0.00 25 939.9
20260506185542 95 211 3.5 7.8 0.00 0.00 0.00 25 939.9
20260506185441 95 117 3.5 7.8 0.00 0.00 0.00 26 939.9
20260506185342 95 48 3.5 7.8 0.00 0.00 0.00 26 939.9
20260506185242 95 16 3.5 7.8 0.00 0.00 0.00 26 939.9
20260506185140 95 357 3.5 7.8 0.00 0.00 0.00 26 940.0
20260506185041 95 17 2.6 7.8 0.00 0.00 0.00 25 940.0
20260506184940 95 9 2.6 7.8 0.00 0.00 0.00 26 940.0
20260506184840 95 149 2.6 7.8 0.00 0.00 0.00 26 940.0
20260506184741 96 26 2.6 7.0 0.00 0.00 0.00 26 940.0
20260506184640 96 34 1.7 7.0 0.00 0.00 0.00 27 940.0
20260506184540 96 147 1.7 7.0 0.00 0.00 0.00 26 940.1
20260506184441 96 105 1.7 7.0 0.00 0.00 0.00 27 940.1
20260506184342 95 261 1.7 7.0 0.00 0.00 0.00 27 940.1
20260506184242 95 0 1.7 7.0 0.00 0.00 0.00 27 940.1
20260506184141 95 321 1.7 7.0 0.00 0.00 0.00 27 940.1
20260506184037 95 297 2.6 7.0 0.00 0.00 0.00 28 940.1
20260506183938 95 314 2.6 7.0 0.00 0.00 0.00 26 940.2
20260506183836 95 299 2.6 6.1 0.00 0.00 0.00 26 940.2
20260506183736 95 287 2.6 6.1 0.00 0.00 0.00 26 940.2
20260506183636 95 326 2.6 6.1 0.00 0.00 0.00 26 940.2
20260506183536 94 272 2.6 6.1 0.00 0.00 0.00 26 940.2
20260506183436 94 0 2.6 6.1 0.00 0.00 0.00 26 940.2
20260506183336 94 66 2.6 6.1 0.00 0.00 0.00 30 940.2
20260506183236 94 7 2.6 6.1 0.00 0.00 0.00 30 940.2
20260506183137 94 191 2.6 6.1 0.00 0.00 0.00 30 940.3
20260506183036 94 41 2.6 6.1 0.00 0.00 0.00 30 940.3
20260506182936 94 20 2.6 6.1 0.00 0.00 0.00 30 940.3
20260506182837 94 354 2.6 5.2 0.00 0.00 0.00 31 940.4
20260506182736 94 31 2.6 5.2 0.00 0.00 0.00 31 940.4
20260506182635 93 0 2.6 5.2 0.00 0.00 0.00 32 940.4
20260506182531 93 174 2.6 5.2 0.00 0.00 0.00 32 940.4
20260506182432 93 182 2.6 5.2 0.00 0.00 0.00 32 940.4
20260506182331 93 211 2.6 5.2 0.00 0.00 0.00 31 940.4
20260506182232 93 142 2.6 5.2 0.00 0.00 0.00 32 940.4
20260506182132 93 158 2.6 5.2 0.00 0.00 0.00 33 940.5
20260506182031 93 153 2.6 5.2 0.00 0.00 0.00 34 940.5
20260506181932 93 347 2.6 5.2 0.00 0.00 0.00 34 940.5
20260506181832 93 359 2.6 5.2 0.00 0.00 0.00 34 940.5
20260506181732 93 58 2.6 6.1 0.00 0.00 0.00 33 940.5
20260506181632 93 182 2.6 6.1 0.00 0.00 0.00 33 940.5
20260506181533 93 206 2.6 6.1 0.00 0.00 0.00 34 940.6
20260506181432 93 83 2.6 6.1 0.00 0.00 0.00 33 940.6
20260506181332 93 136 2.6 6.1 0.00 0.00 0.00 34 940.6
20260506181232 92 153 2.6 6.1 0.00 0.00 0.00 35 940.6
20260506181132 92 174 2.6 6.1 0.00 0.00 0.00 35 940.6
20260506181033 92 3 2.6 6.1 0.00 0.00 0.00 36 940.6
20260506180932 92 352 2.6 6.1 0.00 0.00 0.00 36 940.6
20260506180832 92 15 2.6 6.1 0.00 0.00 0.00 36 940.6
20260506180732 92 21 2.6 6.1 0.00 0.00 0.00 36 940.7
20260506180632 92 13 2.6 5.2 0.00 0.00 0.00 36 940.7
20260506180532 92 19 2.6 5.2 0.00 0.00 0.00 36 940.8
20260506180432 92 3 2.6 5.2 0.00 0.00 0.00 35 940.8
20260506180332 92 41 2.6 5.2 0.00 0.00 0.00 36 940.8
20260506180233 92 59 2.6 6.1 0.00 0.00 0.00 36 940.8
20260506180132 92 0 2.6 6.1 0.00 0.00 0.00 35 940.8
20260506180032 92 78 3.5 6.1 0.00 0.00 0.00 36 940.8
20260506175932 92 77 3.5 6.1 0.00 0.00 0.00 36 940.8
20260506175832 92 50 3.5 6.1 0.00 0.00 0.00 36 940.8
20260506175733 92 30 3.5 6.1 0.00 0.00 0.00 36 940.8
20260506175632 92 74 3.5 6.1 0.00 0.00 0.00 37 940.8
20260506175533 92 75 3.5 6.1 0.00 0.00 0.00 37 940.8
20260506175432 92 15 3.5 6.1 0.00 0.00 0.00 37 940.8
20260506175330 92 50 3.5 6.1 0.00 0.00 0.00 36 940.8
20260506175231 92 41 3.5 6.1 0.00 0.00 0.00 36 940.8
20260506175126 91 32 2.6 6.1 0.00 0.00 0.00 39 940.8
20260506175027 91 52 2.6 6.1 0.00 0.00 0.00 40 940.8
20260506174926 91 112 2.6 6.1 0.00 0.00 0.00 40 940.8
20260506174826 91 65 2.6 6.1 0.00 0.00 0.00 41 940.9
20260506174725 92 45 2.6 6.1 0.00 0.00 0.00 41 940.9
20260506174624 92 92 2.6 6.1 0.00 0.00 0.00 41 941.0
20260506174525 92 71 2.6 6.1 0.00 0.00 0.00 42 941.0
20260506174425 91 102 2.6 6.1 0.00 0.00 0.00 43 941.0
20260506174320 92 46 2.6 6.1 0.00 0.00 0.00 43 941.0
20260506174219 92 65 2.6 6.1 0.00 0.00 0.00 42 941.0
20260506174119 92 44 1.7 6.1 0.00 0.00 0.00 40 941.0
20260506174019 91 79 1.7 4.3 0.00 0.00 0.00 40 941.0
20260506173918 91 95 2.6 4.3 0.00 0.00 0.00 39 941.0
20260506173819 91 359 2.6 4.3 0.00 0.00 0.00 39 941.0
20260506173714 91 338 2.6 4.3 0.00 0.00 0.00 39 941.0
20260506173615 91 20 2.6 4.3 0.00 0.00 0.00 41 941.0
20260506173515 91 286 2.6 5.2 0.00 0.00 0.00 42 941.1
20260506173414 90 9 2.6 5.2 0.00 0.00 0.00 42 941.1
20260506173315 90 33 3.5 5.2 0.00 0.00 0.00 43 941.1
20260506173214 90 359 3.5 5.2 0.00 0.00 0.00 42 941.1
20260506173115 90 44 3.5 5.2 0.00 0.00 0.00 43 941.1
20260506173014 90 30 2.6 5.2 0.00 0.00 0.00 44 941.1
20260506172914 90 0 2.6 5.2 0.00 0.00 0.00 44 941.2
20260506172815 90 30 2.6 5.2 0.00 0.00 0.00 44 941.2
20260506172715 90 64 2.6 5.2 0.00 0.00 0.00 45 941.2
20260506172615 90 63 2.6 5.2 0.00 0.00 0.00 45 941.2
20260506172515 90 56 2.6 5.2 0.00 0.00 0.00 45 941.2
20260506172415 90 73 2.6 5.2 0.00 0.00 0.00 45 941.2
20260506172315 90 66 2.6 5.2 0.00 0.00 0.00 45 941.2
20260506172215 90 22 2.6 5.2 0.00 0.00 0.00 45 941.2
20260506172116 90 37 2.6 5.2 0.00 0.00 0.00 45 941.2
20260506172015 90 38 2.6 5.2 0.00 0.00 0.00 46 941.2
20260506171915 90 349 2.6 5.2 0.00 0.00 0.00 45 941.2
20260506171815 90 0 2.6 6.1 0.00 0.00 0.00 43 941.2
20260506171715 90 340 2.6 6.1 0.00 0.00 0.00 45 941.2
20260506171615 90 45 3.5 6.1 0.00 0.00 0.00 46 941.2
20260506171515 90 15 3.5 7.0 0.00 0.00 0.00 46 941.2
20260506171416 90 5 3.5 7.0 0.00 0.00 0.00 46 941.3
20260506171315 90 0 2.6 7.0 0.00 0.00 0.00 45 941.3
20260506171215 90 35 3.5 7.0 0.00 0.00 0.00 44 941.2
20260506171115 90 31 3.5 7.0 0.00 0.00 0.00 44 941.2
20260506171015 90 8 3.5 7.0 0.00 0.00 0.00 45 941.3
20260506170916 90 357 3.5 7.0 0.00 0.00 0.00 44 941.3
20260506170815 90 354 2.6 7.0 0.00 0.00 0.00 44 941.2
20260506170715 90 17 2.6 7.0 0.00 0.00 0.00 45 941.3
20260506170615 90 351 2.6 7.0 0.00 0.00 0.00 45 941.2
20260506170515 90 354 1.7 6.1 0.00 0.00 0.00 46 941.3
20260506170415 90 327 2.6 6.1 0.00 0.00 0.00 46 941.3
20260506170315 90 342 2.6 6.1 0.00 0.00 0.00 46 941.3
20260506170215 90 9 2.6 6.1 0.00 0.00 0.00 47 941.3
20260506170116 90 308 2.6 6.1 0.00 0.00 0.00 46 941.4
20260506170015 89 31 2.6 6.1 0.00 0.00 0.00 46 941.4
20260506165915 89 0 2.6 5.2 0.00 0.00 0.00 46 941.3
20260506165816 89 310 2.6 5.2 0.00 0.00 0.00 48 941.4
20260506165714 89 334 2.6 5.2 0.00 0.00 0.00 48 941.4
20260506165615 89 294 2.6 5.2 0.00 0.00 0.00 48 941.4
20260506165515 89 355 2.6 5.2 0.00 0.00 0.00 48 941.4
20260506165415 89 8 2.6 5.2 0.00 0.00 0.00 48 941.4
20260506165315 89 326 2.6 5.2 0.00 0.00 0.00 48 941.4
20260506165216 89 354 2.6 5.2 0.00 0.00 0.00 48 941.4
20260506165115 89 351 2.6 5.2 0.00 0.00 0.00 49 941.3
20260506165015 89 15 1.7 5.2 0.00 0.00 0.00 49 941.4
20260506164915 89 16 1.7 5.2 0.00 0.00 0.00 50 941.3
20260506164816 89 5 1.7 5.2 0.00 0.00 0.00 50 941.3
20260506164714 89 23 1.7 5.2 0.00 0.00 0.00 50 941.4
20260506164613 89 328 1.7 5.2 0.00 0.00 0.00 52 941.4
20260506164514 89 26 1.7 5.2 0.00 0.00 0.00 52 941.4
20260506164414 89 11 1.7 5.2 0.00 0.00 0.00 52 941.4
20260506164314 88 356 1.7 5.2 0.00 0.00 0.00 52 941.4
20260506164214 88 24 2.6 5.2 0.00 0.00 0.00 53 941.5
20260506164114 88 149 2.6 5.2 0.00 0.00 0.00 53 941.5
20260506164014 88 105 2.6 5.2 0.00 0.00 0.00 53 941.5
20260506163914 88 43 2.6 5.2 0.00 0.00 0.00 53 941.5
20260506163810 88 62 2.6 5.2 0.00 0.00 0.00 52 941.4
20260506163709 88 27 2.6 4.3 0.00 0.00 0.00 53 941.4
20260506163610 88 335 1.7 4.3 0.00 0.00 0.00 53 941.4
20260506163510 88 11 1.7 4.3 0.00 0.00 0.00 52 941.4
20260506163409 88 5 1.7 4.3 0.00 0.00 0.00 52 941.4
20260506163309 88 25 1.7 4.3 0.00 0.00 0.00 52 941.4
20260506163210 88 355 1.7 4.3 0.00 0.00 0.00 52 941.4
20260506163109 87 3 1.7 4.3 0.00 0.00 0.00 53 941.4
20260506163010 87 268 1.7 4.3 0.00 0.00 0.00 53 941.5
20260506162910 87 209 1.7 6.1 0.00 0.00 0.00 53 941.5
20260506162810 87 48 1.7 6.1 0.00 0.00 0.00 54 941.5
20260506162710 87 25 1.7 6.1 0.00 0.00 0.00 54 941.5
20260506162609 87 16 2.6 6.1 0.00 0.00 0.00 54 941.5
20260506162510 86 0 2.6 6.1 0.00 0.00 0.00 55 941.5
20260506162410 86 230 2.6 6.1 0.00 0.00 0.00 55 941.5
20260506162310 86 41 2.6 6.1 0.00 0.00 0.00 55 941.5
20260506162209 86 357 2.6 6.1 0.00 0.00 0.00 55 941.6
20260506162110 87 8 2.6 6.1 0.00 0.00 0.00 55 941.5
20260506162010 87 332 2.6 6.1 0.00 0.00 0.00 55 941.6
20260506161909 87 8 1.7 6.1 0.00 0.00 0.00 55 941.5
20260506161810 87 22 1.7 5.2 0.00 0.00 0.00 55 941.5
20260506161710 87 35 1.7 5.2 0.00 0.00 0.00 55 941.6
20260506161610 87 7 1.7 5.2 0.00 0.00 0.00 56 941.6
20260506161510 87 333 1.7 4.3 0.00 0.00 0.00 56 941.6
20260506161410 87 347 2.6 4.3 0.00 0.00 0.00 56 941.6
20260506161310 86 353 1.7 4.3 0.00 0.00 0.00 57 941.5
20260506161210 86 15 1.7 4.3 0.00 0.00 0.00 58 941.5
20260506161110 86 14 1.7 4.3 0.00 0.00 0.00 58 941.5
20260506161010 87 28 1.7 4.3 0.00 0.00 0.00 58 941.5
20260506160910 87 25 1.7 4.3 0.00 0.00 0.00 58 941.5
20260506160810 87 26 1.7 4.3 0.00 0.00 0.00 58 941.5
20260506160711 87 50 1.7 4.3 0.00 0.00 0.00 57 941.5
20260506160610 87 56 1.7 4.3 0.00 0.00 0.00 57 941.5
20260506160510 87 19 0.9 4.3 0.00 0.00 0.00 56 941.6
20260506160411 86 31 0.9 5.2 0.00 0.00 0.00 56 941.6
20260506160310 86 123 1.7 5.2 0.00 0.00 0.00 57 941.6
20260506160210 86 331 1.7 5.2 0.00 0.00 0.00 57 941.6
20260506160110 86 0 1.7 5.2 0.00 0.00 0.00 58 941.6
20260506160010 85 0 1.7 5.2 0.00 0.00 0.00 58 941.6
20260506155909 85 56 1.7 5.2 0.00 0.00 0.00 58 941.6
20260506155809 85 89 1.7 5.2 0.00 0.00 0.00 59 941.6
20260506155708 85 284 1.7 5.2 0.00 0.00 0.00 58 941.6
20260506155609 85 28 1.7 5.2 0.00 0.00 0.00 59 941.6
20260506155504 85 307 1.7 5.2 0.00 0.00 0.00 59 941.6
20260506155405 85 4 1.7 3.5 0.00 0.00 0.00 59 941.6
20260506155306 85 345 1.7 3.5 0.00 0.00 0.00 58 941.6
20260506155205 85 357 1.7 3.5 0.00 0.00 0.00 59 941.6
20260506155104 85 9 1.7 3.5 0.00 0.00 0.00 58 941.6
20260506155003 84 18 1.7 3.5 0.00 0.00 0.00 59 941.6
20260506154903 84 16 1.7 3.5 0.00 0.00 0.00 59 941.6
20260506154759 84 352 1.7 3.5 0.00 0.00 0.00 60 941.6
20260506154658 84 2 1.7 3.5 0.00 0.00 0.00 61 941.6
20260506154559 84 0 1.7 3.5 0.00 0.00 0.00 61 941.6
20260506154459 84 0 1.7 3.5 0.00 0.00 0.00 62 941.6
20260506154357 84 111 1.7 3.5 0.00 0.00 0.00 62 941.6
20260506154257 84 144 1.7 3.5 0.00 0.00 0.00 62 941.6
20260506154157 84 179 1.7 3.5 0.00 0.00 0.00 61 941.5
20260506154058 84 153 0.9 3.5 0.00 0.00 0.00 62 941.5
20260506153957 84 191 0.9 3.5 0.00 0.00 0.00 62 941.5
20260506153856 84 131 0.9 3.5 0.00 0.00 0.00 62 941.5
20260506153753 84 130 0.9 3.5 0.00 0.00 0.00 62 941.5
20260506153653 84 187 0.9 3.5 0.00 0.00 0.00 62 941.5
20260506153551 84 215 0.9 3.5 0.00 0.00 0.00 62 941.5
20260506153451 84 134 0.9 3.5 0.00 0.00 0.00 62 941.5
20260506153352 84 147 0.9 3.5 0.00 0.00 0.00 61 941.4
20260506153251 84 0 0.9 3.5 0.00 0.00 0.00 62 941.4
20260506153147 84 71 0.9 3.5 0.00 0.00 0.00 62 941.4
20260506153047 84 141 0.9 3.5 0.00 0.00 0.00 61 941.4
20260506152947 84 115 0.9 2.6 0.00 0.00 0.00 62 941.4
20260506152847 84 0 0.9 2.6 0.00 0.00 0.00 61 941.4
20260506152747 83 35 0.9 2.6 0.00 0.00 0.00 62 941.3
20260506152647 83 42 0.9 2.6 0.00 0.00 0.00 62 941.4
20260506152546 83 4 0.9 2.6 0.00 0.00 0.00 62 941.4
20260506152447 83 5 0.9 2.6 0.00 0.00 0.00 62 941.3
20260506152347 83 352 0.9 2.6 0.00 0.00 0.00 62 941.3
20260506152247 83 301 0.9 3.5 0.00 0.00 0.00 63 941.3
20260506152147 82 0 0.9 3.5 0.00 0.00 0.00 63 941.3
20260506152047 82 317 1.7 3.5 0.00 0.00 0.00 64 941.3
20260506151947 82 355 1.7 3.5 0.00 0.00 0.00 64 941.4
20260506151847 82 37 1.7 3.5 0.00 0.00 0.00 64 941.4
20260506151747 82 42 1.7 3.5 0.00 0.00 0.00 65 941.4
20260506151647 82 16 1.7 3.5 0.00 0.00 0.00 65 941.4
20260506151547 81 33 1.7 3.5 0.00 0.00 0.00 65 941.4
20260506151447 81 106 1.7 3.5 0.00 0.00 0.00 66 941.3
20260506151347 81 22 1.7 4.3 0.00 0.00 0.00 67 941.3
20260506151247 81 72 1.7 4.3 0.00 0.00 0.00 67 941.3
20260506151148 81 20 2.6 4.3 0.00 0.00 0.00 68 941.3
20260506151047 81 21 2.6 4.3 0.00 0.00 0.00 69 941.3
20260506150948 81 53 2.6 4.3 0.00 0.00 0.00 69 941.3
20260506150847 81 30 2.6 4.3 0.00 0.00 0.00 69 941.4
20260506150748 81 52 2.6 4.3 0.00 0.00 0.00 69 941.4
20260506150647 81 84 2.6 4.3 0.00 0.00 0.00 69 941.4
20260506150547 81 71 2.6 4.3 0.00 0.00 0.00 69 941.4
20260506150448 81 37 2.6 4.3 0.00 0.00 0.00 69 941.4
20260506150347 81 51 2.6 4.3 0.00 0.00 0.00 70 941.4
20260506150245 81 51 2.6 4.3 0.00 0.00 0.00 69 941.4
20260506150146 81 78 2.6 4.3 0.00 0.00 0.00 69 941.4
20260506150045 81 57 1.7 4.3 0.00 0.00 0.00 69 941.4
20260506145946 81 80 1.7 4.3 0.00 0.00 0.00 69 941.4
20260506145846 81 18 1.7 4.3 0.00 0.00 0.00 70 941.3
20260506145745 81 15 2.6 5.2 0.00 0.00 0.00 70 941.4
20260506145641 81 52 1.7 5.2 0.00 0.00 0.00 69 941.4
20260506145542 81 75 1.7 5.2 0.00 0.00 0.00 69 941.4
20260506145442 81 348 1.7 5.2 0.00 0.00 0.00 69 941.4
20260506145341 81 4 1.7 6.1 0.00 0.00 0.00 69 941.4
20260506145242 81 85 2.6 6.1 0.00 0.00 0.00 69 941.4
20260506145142 80 77 2.6 6.1 0.00 0.00 0.00 70 941.4
20260506145041 80 140 2.6 6.1 0.00 0.00 0.00 70 941.3
20260506144941 80 32 2.6 6.1 0.00 0.00 0.00 70 941.4
20260506144841 80 102 1.7 6.1 0.00 0.00 0.00 70 941.3
20260506144742 80 144 1.7 6.1 0.00 0.00 0.00 71 941.4
20260506144641 80 22 2.6 6.1 0.00 0.00 0.00 72 941.4
20260506144543 80 24 2.6 6.1 0.00 0.00 0.00 73 941.4
20260506144443 80 19 2.6 6.1 0.00 0.00 0.00 73 941.4
20260506144343 80 64 2.6 6.1 0.00 0.00 0.00 72 941.4
20260506144243 80 68 2.6 6.1 0.00 0.00 0.00 73 941.4
20260506144143 80 104 3.5 6.1 0.00 0.00 0.00 73 941.4
20260506144043 80 67 3.5 6.1 0.00 0.00 0.00 73 941.4
20260506143943 79 56 3.5 6.1 0.00 0.00 0.00 74 941.5
20260506143843 79 61 3.5 6.1 0.00 0.00 0.00 75 941.5
20260506143744 79 102 3.5 6.1 0.00 0.00 0.00 75 941.5
20260506143643 80 88 3.5 6.1 0.00 0.00 0.00 75 941.5
20260506143543 80 67 3.5 6.1 0.00 0.00 0.00 75 941.5
20260506143444 80 65 3.5 6.1 0.00 0.00 0.00 74 941.5
20260506143343 80 87 3.5 7.0 0.00 0.00 0.00 74 941.4
20260506143243 80 50 3.5 7.0 0.00 0.00 0.00 74 941.5
20260506143144 80 59 3.5 7.0 0.00 0.00 0.00 74 941.5
20260506143043 80 74 3.5 7.0 0.00 0.00 0.00 74 941.5
20260506142944 80 68 3.5 7.0 0.00 0.00 0.00 74 941.5
20260506142843 80 98 3.5 7.0 0.00 0.00 0.00 74 941.5
20260506142743 79 120 2.6 7.0 0.00 0.00 0.00 75 941.5
20260506142644 79 71 2.6 7.0 0.00 0.00 0.00 76 941.5
20260506142543 80 37 2.6 7.0 0.00 0.00 0.00 76 941.5
20260506142443 80 64 2.6 7.0 0.00 0.00 0.00 75 941.5
20260506142344 80 67 2.6 6.1 0.00 0.00 0.00 75 941.5
20260506142243 80 84 1.7 5.2 0.00 0.00 0.00 73 941.5
20260506142144 80 89 1.7 5.2 0.00 0.00 0.00 74 941.5
20260506142043 80 109 1.7 5.2 0.00 0.00 0.00 74 941.5
20260506141942 80 54 2.6 5.2 0.00 0.00 0.00 73 941.5
20260506141844 79 116 2.6 5.2 0.00 0.00 0.00 73 941.5
20260506141743 79 120 2.6 5.2 0.00 0.00 0.00 73 941.4
20260506141644 79 20 2.6 5.2 0.00 0.00 0.00 74 941.4
20260506141542 79 78 2.6 5.2 0.00 0.00 0.00 75 941.4
20260506141442 79 83 2.6 5.2 0.00 0.00 0.00 76 941.4
20260506141342 78 148 3.5 5.2 0.00 0.00 0.00 77 941.4
20260506141242 78 6 3.5 6.1 0.00 0.00 0.00 77 941.4
20260506141143 78 52 3.5 6.1 0.00 0.00 0.00 77 941.4
20260506141042 78 64 3.5 6.1 0.00 0.00 0.00 77 941.4
20260506140942 78 65 3.5 6.1 0.00 0.00 0.00 77 941.4
20260506140842 78 56 3.5 6.1 0.00 0.00 0.00 77 941.3
20260506140742 78 88 3.5 6.1 0.00 0.00 0.00 78 941.3
20260506140640 78 30 3.5 6.1 0.00 0.00 0.00 78 941.3
20260506140541 78 54 3.5 6.1 0.00 0.00 0.00 78 941.3
20260506140440 78 87 3.5 6.1 0.00 0.00 0.00 78 941.3
20260506140341 78 32 3.5 6.1 0.00 0.00 0.00 78 941.3
20260506140241 78 62 3.5 5.2 0.00 0.00 0.00 78 941.3
20260506140140 78 81 3.5 5.2 0.00 0.00 0.00 77 941.2
20260506140041 78 86 3.5 5.2 0.00 0.00 0.00 78 941.2
20260506135940 78 61 2.6 5.2 0.00 0.00 0.00 79 941.2
20260506135841 79 85 2.6 5.2 0.00 0.00 0.00 78 941.2
20260506135740 79 71 2.6 5.2 0.00 0.00 0.00 78 941.2
20260506135641 79 95 2.6 5.2 0.00 0.00 0.00 77 941.2
20260506135541 79 82 1.7 5.2 0.00 0.00 0.00 76 941.2
20260506135441 79 93 1.7 5.2 0.00 0.00 0.00 75 941.2
20260506135341 79 72 1.7 5.2 0.00 0.00 0.00 75 941.2
20260506135241 79 76 1.7 4.3 0.00 0.00 0.00 75 941.2
20260506135141 79 41 1.7 4.3 0.00 0.00 0.00 76 941.2
20260506135041 79 102 1.7 4.3 0.00 0.00 0.00 75 941.2
20260506134937 79 55 1.7 4.3 0.00 0.00 0.00 77 941.2
20260506134836 78 0 1.7 4.3 0.00 0.00 0.00 77 941.2
20260506134737 78 0 2.6 4.3 0.00 0.00 0.00 77 941.2
20260506134635 78 92 2.6 5.2 0.00 0.00 0.00 76 941.1
20260506134535 78 104 2.6 5.2 0.00 0.00 0.00 76 941.2
20260506134435 78 80 2.6 5.2 0.00 0.00 0.00 77 941.2
20260506134334 78 86 2.6 5.2 0.00 0.00 0.00 77 941.1
20260506134232 78 110 3.5 6.1 0.00 0.00 0.00 78 941.1
20260506134130 78 0 3.5 7.0 0.00 0.00 0.00 78 941.1
20260506134030 78 63 3.5 7.0 0.00 0.00 0.00 78 941.2
20260506133929 78 89 3.5 7.0 0.00 0.00 0.00 78 941.2
20260506133830 78 62 3.5 7.0 0.00 0.00 0.00 78 941.2
20260506133729 78 77 3.5 7.0 0.00 0.00 0.00 78 941.1
20260506133630 78 96 3.5 7.0 0.00 0.00 0.00 79 941.1
20260506133528 78 73 2.6 7.0 0.00 0.00 0.00 78 941.1
20260506133429 78 63 2.6 7.0 0.00 0.00 0.00 78 941.1
20260506133328 78 83 2.6 7.0 0.00 0.00 0.00 77 941.1
20260506133229 79 54 2.6 7.0 0.00 0.00 0.00 76 941.1
20260506133128 79 67 2.6 5.2 0.00 0.00 0.00 76 941.1
20260506133028 79 46 2.6 5.2 0.00 0.00 0.00 75 941.0
20260506132928 79 92 2.6 5.2 0.00 0.00 0.00 75 941.0
20260506132828 79 56 2.6 5.2 0.00 0.00 0.00 75 941.0
20260506132728 79 105 1.7 5.2 0.00 0.00 0.00 75 941.0
20260506132628 79 351 1.7 5.2 0.00 0.00 0.00 75 940.9
20260506132528 79 73 1.7 5.2 0.00 0.00 0.00 75 940.9
20260506132429 79 81 1.7 5.2 0.00 0.00 0.00 75 940.9
20260506132330 79 80 1.7 5.2 0.00 0.00 0.00 74 940.9
20260506132230 79 50 1.7 4.3 0.00 0.00 0.00 73 940.9
20260506132130 79 33 1.7 4.3 0.00 0.00 0.00 72 940.9
20260506132029 79 77 1.7 4.3 0.00 0.00 0.00 70 940.9
20260506131930 79 60 1.7 4.3 0.00 0.00 0.00 69 940.9
20260506131829 79 34 1.7 4.3 0.00 0.00 0.00 70 940.9
20260506131730 79 114 1.7 4.3 0.00 0.00 0.00 69 940.9
20260506131630 80 35 0.9 4.3 0.00 0.00 0.00 65 940.9
20260506131530 79 40 0.9 2.6 0.00 0.00 0.00 65 940.9
20260506131429 79 24 0.9 2.6 0.00 0.00 0.00 65 940.9
20260506131330 79 21 0.9 2.6 0.00 0.00 0.00 65 940.9
20260506131230 79 52 0.9 2.6 0.00 0.00 0.00 64 940.9
20260506131125 79 61 0.9 2.6 0.00 0.00 0.00 64 940.8
20260506131025 80 0 0.0 2.6 0.00 0.00 0.00 63 940.8
20260506130926 79 87 0.0 1.7 0.00 0.00 0.00 63 940.8
20260506130825 79 0 0.0 1.7 0.00 0.00 0.00 63 940.8
20260506130725 79 0 0.0 1.7 0.00 0.00 0.00 63 940.7
20260506130625 79 0 0.0 1.7 0.00 0.00 0.00 63 940.7
20260506130524 79 55 0.0 1.7 0.00 0.00 0.00 63 940.7
20260506130423 79 0 0.0 1.7 0.00 0.00 0.00 63 940.7
20260506130324 79 0 0.0 1.7 0.00 0.00 0.00 63 940.7
20260506130221 79 2 0.0 1.7 0.00 0.00 0.00 63 940.7
20260506130116 79 79 0.0 1.7 0.00 0.00 0.00 63 940.7
20260506130017 79 0 0.0 1.7 0.00 0.00 0.00 63 940.6
20260506125915 79 116 0.0 0.9 0.00 0.00 0.00 63 940.6
20260506125814 78 0 0.0 0.9 0.00 0.00 0.00 63 940.6
20260506125715 78 0 0.0 0.9 0.00 0.00 0.00 63 940.6
20260506125614 78 0 0.0 0.9 0.00 0.00 0.00 63 940.6
20260506125515 78 0 0.0 1.7 0.00 0.00 0.00 63 940.6
20260506125414 78 142 0.0 1.7 0.00 0.00 0.00 63 940.6
20260506125315 78 0 0.0 1.7 0.00 0.00 0.00 64 940.6
20260506125215 78 0 0.0 1.7 0.00 0.00 0.00 64 940.5
20260506125115 77 0 0.0 1.7 0.00 0.00 0.00 65 940.5
20260506125015 77 0 0.0 1.7 0.00 0.00 0.00 65 940.5
20260506124914 77 0 0.0 1.7 0.00 0.00 0.00 66 940.5
20260506124815 77 0 0.0 1.7 0.00 0.00 0.00 67 940.5
20260506124715 77 0 0.0 1.7 0.00 0.00 0.00 67 940.5
20260506124614 77 97 0.0 1.7 0.00 0.00 0.00 67 940.4
20260506124500 77 119 0.0 1.7 0.00 0.00 0.00 65 940.4
20260506124400 77 128 0.0 1.7 0.00 0.00 0.00 64 940.4
20260506124244 77 178 0.0 0.9 0.00 0.00 0.00 63 940.4
20260506124143 77 187 0.0 0.9 0.00 0.00 0.00 63 940.4
20260506124043 77 0 0.0 0.9 0.00 0.00 0.00 64 940.4
20260506123944 77 0 0.0 0.9 0.00 0.00 0.00 64 940.4
20260506123843 76 0 0.0 0.9 0.00 0.00 0.00 64 940.4
20260506123744 76 0 0.0 0.9 0.00 0.00 0.00 64 940.3
20260506123645 76 0 0.0 0.9 0.00 0.00 0.00 63 940.3
20260506123543 76 0 0.0 0.9 0.00 0.00 0.00 63 940.3
20260506123444 76 0 0.0 0.9 0.00 0.00 0.00 63 940.3
20260506123344 76 225 0.0 0.9 0.00 0.00 0.00 63 940.3
20260506123243 76 0 0.0 0.0 0.00 0.00 0.00 63 940.3
20260506123144 76 0 0.0 0.0 0.00 0.00 0.00 63 940.3
20260506123044 76 0 0.0 0.0 0.00 0.00 0.00 63 940.3
20260506122944 76 0 0.0 0.9 0.00 0.00 0.00 63 940.3
20260506122844 76 0 0.0 0.9 0.00 0.00 0.00 63 940.3
20260506122744 76 0 0.0 1.7 0.00 0.00 0.00 63 940.3
20260506122644 76 0 0.0 1.7 0.00 0.00 0.00 63 940.3
20260506122544 76 0 0.0 1.7 0.00 0.00 0.00 63 940.3
20260506122444 76 0 0.0 1.7 0.00 0.00 0.00 63 940.2
20260506122344 76 0 0.9 1.7 0.00 0.00 0.00 63 940.2
20260506122244 76 0 0.9 1.7 0.00 0.00 0.00 64 940.2
20260506122144 76 0 0.9 1.7 0.00 0.00 0.00 63 940.2
20260506122044 76 236 0.9 1.7 0.00 0.00 0.00 64 940.1
20260506121944 76 257 0.9 1.7 0.00 0.00 0.00 64 940.1
20260506121844 76 252 0.9 1.7 0.00 0.00 0.00 64 940.1
20260506121744 76 233 0.9 1.7 0.00 0.00 0.00 64 940.1
20260506121644 76 252 0.9 1.7 0.00 0.00 0.00 64 940.1
20260506121544 76 152 1.7 1.7 0.00 0.00 0.00 65 940.1
20260506121444 76 246 1.7 1.7 0.00 0.00 0.00 65 940.0
20260506121345 76 222 1.7 1.7 0.00 0.00 0.00 68 940.0
20260506121244 76 261 1.7 1.7 0.00 0.00 0.00 68 940.0
20260506121144 76 331 1.7 1.7 0.00 0.00 0.00 68 940.0
20260506121045 76 319 1.7 1.7 0.00 0.00 0.00 68 940.0
20260506120944 76 343 0.9 1.7 0.00 0.00 0.00 68 940.0
20260506120844 76 336 0.9 1.7 0.00 0.00 0.00 68 940.0
20260506120744 76 347 0.9 1.7 0.00 0.00 0.00 68 940.0
20260506120644 76 356 0.9 1.7 0.00 0.00 0.00 69 940.0
20260506120544 76 6 0.9 1.7 0.00 0.00 0.00 69 939.9
20260506120445 76 37 0.9 1.7 0.00 0.00 0.00 70 940.0
20260506120344 76 48 0.9 1.7 0.00 0.00 0.00 70 940.0
20260506120244 76 0 0.9 1.7 0.00 0.00 0.00 70 940.0
20260506120144 76 0 0.9 1.7 0.00 0.00 0.00 70 940.0
20260506120045 76 0 0.9 1.7 0.00 0.00 0.00 70 939.9
20260506115944 76 0 0.9 1.7 0.00 0.00 0.00 70 939.9
20260506115844 76 0 1.7 1.7 0.00 0.00 0.00 70 939.9
20260506115745 76 316 1.7 1.7 0.00 0.00 0.00 70 939.9
20260506115631 76 345 1.7 1.7 0.00 0.00 0.00 70 939.9
20260506115532 76 315 1.7 1.7 0.00 0.00 0.00 70 939.9
20260506115431 76 314 1.7 1.7 0.00 0.00 0.00 69 939.9
20260506115331 76 314 0.9 1.7 0.00 0.00 0.00 69 939.9
20260506115231 76 322 0.9 1.7 0.00 0.00 0.00 69 939.9
20260506115132 76 307 0.9 1.7 0.00 0.00 0.00 68 939.9
20260506115031 76 334 0.9 1.7 0.00 0.00 0.00 68 939.9
20260506114932 76 327 0.9 1.7 0.00 0.00 0.00 68 939.8
20260506114832 76 300 0.9 1.7 0.00 0.00 0.00 69 939.8
20260506114731 76 287 0.9 1.7 0.00 0.00 0.00 69 939.8
20260506114632 76 321 0.0 1.7 0.00 0.00 0.00 69 939.8
20260506114531 76 0 0.0 1.7 0.00 0.00 0.00 69 939.8
20260506114431 76 2 0.0 1.7 0.00 0.00 0.00 68 939.8
20260506114331 76 0 0.0 1.7 0.00 0.00 0.00 68 939.7
20260506114230 76 8 0.0 1.7 0.00 0.00 0.00 68 939.7
20260506114131 76 20 0.0 1.7 0.00 0.00 0.00 67 939.7
20260506114032 76 41 0.0 1.7 0.00 0.00 0.00 67 939.7
20260506113931 76 0 0.0 1.7 0.00 0.00 0.00 67 939.7
20260506113831 76 0 0.0 1.7 0.00 0.00 0.00 67 939.6
20260506113731 76 0 0.9 1.7 0.00 0.00 0.00 67 939.6
20260506113632 76 0 0.9 1.7 0.00 0.00 0.00 67 939.6
20260506113531 76 0 0.9 1.7 0.00 0.00 0.00 67 939.6
20260506113431 76 0 0.9 1.7 0.00 0.00 0.00 67 939.6
20260506113331 76 0 0.9 1.7 0.00 0.00 0.00 67 939.6
20260506113231 76 0 0.9 1.7 0.00 0.00 0.00 67 939.6
20260506113131 76 105 0.9 1.7 0.00 0.00 0.00 67 939.6
20260506113032 76 120 0.9 1.7 0.00 0.00 0.00 67 939.5
20260506112931 76 89 0.0 1.7 0.00 0.00 0.00 67 939.5
20260506112831 77 100 0.0 1.7 0.00 0.00 0.00 67 939.5
20260506112732 77 76 0.0 1.7 0.00 0.00 0.00 66 939.5
20260506112631 77 0 0.0 0.9 0.00 0.00 0.00 66 939.5
20260506112532 77 0 0.0 0.9 0.00 0.00 0.00 66 939.5
20260506112431 77 0 0.0 0.9 0.00 0.00 0.00 66 939.5
20260506112331 77 0 0.0 0.9 0.00 0.00 0.00 66 939.5
20260506112231 77 0 0.0 0.9 0.00 0.00 0.00 66 939.5
20260506112132 77 0 0.0 0.9 0.00 0.00 0.00 65 939.5
20260506112031 77 0 0.0 0.9 0.00 0.00 0.00 65 939.5
20260506111931 77 0 0.0 0.9 0.00 0.00 0.00 65 939.5
20260506111831 77 0 0.0 0.9 0.00 0.00 0.00 65 939.4
20260506111732 77 0 0.0 0.9 0.00 0.00 0.00 65 939.4
20260506111631 77 242 0.0 0.9 0.00 0.00 0.00 65 939.4
20260506111518 77 237 0.0 0.9 0.00 0.00 0.00 66 939.4
20260506111416 77 199 0.0 0.9 0.00 0.00 0.00 66 939.4
20260506111317 77 0 0.0 0.0 0.00 0.00 0.00 67 939.4
20260506111217 77 0 0.0 0.0 0.00 0.00 0.00 67 939.4
20260506111116 77 0 0.0 0.0 0.00 0.00 0.00 67 939.4
20260506111017 77 0 0.0 0.0 0.00 0.00 0.00 67 939.4
20260506110916 77 0 0.0 0.0 0.00 0.00 0.00 67 939.4
20260506110816 77 0 0.0 0.0 0.00 0.00 0.00 67 939.4
20260506110717 77 0 0.0 0.0 0.00 0.00 0.00 67 939.3
20260506110616 77 0 0.0 0.0 0.00 0.00 0.00 67 939.3
20260506110503 77 0 0.0 0.0 0.00 0.00 0.00 67 939.3
20260506110402 77 0 0.0 0.0 0.00 0.00 0.00 66 939.3
20260506110302 77 0 0.0 0.0 0.00 0.00 0.00 66 939.3
20260506110202 77 0 0.0 0.0 0.00 0.00 0.00 66 939.3
20260506110002 77 0 0.0 0.0 0.00 0.00 0.00 66 939.3
20260506105901 77 0 0.0 0.0 0.00 0.00 0.00 66 939.3
20260506105801 77 0 0.0 1.7 0.00 0.00 0.00 66 939.3
20260506105702 77 0 0.0 1.7 0.00 0.00 0.00 66 939.2
20260506105602 77 0 0.0 1.7 0.00 0.00 0.00 66 939.3
20260506105447 77 0 0.0 1.7 0.00 0.00 0.00 66 939.3
20260506105346 77 0 0.0 1.7 0.00 0.00 0.00 66 939.3
20260506105246 77 0 0.0 1.7 0.00 0.00 0.00 66 939.3
20260506105146 77 0 0.0 1.7 0.00 0.00 0.00 66 939.3
20260506105045 77 0 0.0 1.7 0.00 0.00 0.00 66 939.3
20260506104946 77 0 0.0 1.7 0.00 0.00 0.00 66 939.3
20260506104846 77 156 0.0 1.7 0.00 0.00 0.00 65 939.3
20260506104746 77 171 0.0 1.7 0.00 0.00 0.00 66 939.3
20260506104645 77 0 0.0 0.0 0.00 0.00 0.00 67 939.3
20260506104546 77 0 0.0 0.0 0.00 0.00 0.00 67 939.3
20260506104447 77 0 0.0 0.9 0.00 0.00 0.00 68 939.3
20260506104345 77 0 0.0 0.9 0.00 0.00 0.00 68 939.3
20260506104245 77 0 0.0 0.9 0.00 0.00 0.00 69 939.2
20260506104146 77 0 0.0 0.9 0.00 0.00 0.00 70 939.2
20260506104045 77 0 0.0 0.9 0.00 0.00 0.00 71 939.2
20260506103946 77 0 0.0 0.9 0.00 0.00 0.00 71 939.2
20260506103846 77 0 0.0 1.7 0.00 0.00 0.00 72 939.3
20260506103746 77 0 0.0 1.7 0.00 0.00 0.00 72 939.3
20260506103646 77 0 0.0 1.7 0.00 0.00 0.00 73 939.2
20260506103546 77 121 0.0 1.7 0.00 0.00 0.00 73 939.3
20260506103446 77 0 0.0 1.7 0.00 0.00 0.00 73 939.3
20260506103346 78 120 0.0 1.7 0.00 0.00 0.00 73 939.3
20260506103246 78 0 0.0 1.7 0.00 0.00 0.00 72 939.3
20260506103145 78 0 0.0 1.7 0.00 0.00 0.00 73 939.3
20260506103046 78 0 0.0 1.7 0.00 0.00 0.00 73 939.2
20260506102946 78 88 0.0 1.7 0.00 0.00 0.00 73 939.2
20260506102846 78 0 0.0 1.7 0.00 0.00 0.00 73 939.2
20260506102746 78 0 0.0 1.7 0.00 0.00 0.00 72 939.3
20260506102646 78 0 0.0 1.7 0.00 0.00 0.00 72 939.3
20260506102546 78 0 0.0 1.7 0.00 0.00 0.00 71 939.3
20260506102446 78 0 0.0 1.7 0.00 0.00 0.00 71 939.3
20260506102346 78 0 0.0 1.7 0.00 0.00 0.00 71 939.2
20260506102246 78 104 0.0 1.7 0.00 0.00 0.00 71 939.2
20260506102147 78 100 0.9 2.6 0.00 0.00 0.00 71 939.2
20260506102046 78 127 0.9 2.6 0.00 0.00 0.00 70 939.2
20260506101946 78 0 0.9 2.6 0.00 0.00 0.00 69 939.1
20260506101846 78 0 0.9 2.6 0.00 0.00 0.00 69 939.1
20260506101746 78 0 0.9 2.6 0.00 0.00 0.00 69 939.1
20260506101646 78 0 0.9 2.6 0.00 0.00 0.00 69 939.1
20260506101546 78 0 0.9 2.6 0.00 0.00 0.00 68 939.1
20260506101446 78 98 1.7 2.6 0.00 0.00 0.00 68 939.1
20260506101332 78 112 1.7 2.6 0.00 0.00 0.00 68 939.1
20260506101233 78 86 1.7 2.6 0.00 0.00 0.00 67 939.1
20260506101133 78 82 1.7 2.6 0.00 0.00 0.00 67 939.1
20260506101033 78 66 1.7 2.6 0.00 0.00 0.00 67 939.1
20260506100933 78 69 1.7 2.6 0.00 0.00 0.00 67 939.1
20260506100818 78 53 1.7 2.6 0.00 0.00 0.00 67 939.1
20260506100719 78 71 1.7 2.6 0.00 0.00 0.00 67 939.0
20260506100604 78 68 1.7 2.6 0.00 0.00 0.00 68 939.0
20260506100503 78 84 1.7 2.6 0.00 0.00 0.00 68 939.0
20260506100404 78 73 1.7 2.6 0.00 0.00 0.00 69 939.0
20260506100302 78 0 1.7 2.6 0.00 0.00 0.00 69 939.0
20260506100146 78 63 1.7 2.6 0.00 0.00 0.00 68 939.0
20260506100047 78 50 1.7 2.6 0.00 0.00 0.00 68 939.0
20260506095946 79 64 0.9 2.6 0.00 0.00 0.00 68 939.0
20260506095847 79 62 0.9 2.6 0.00 0.00 0.00 68 939.0
20260506095746 79 62 0.9 1.7 0.00 0.00 0.00 68 939.0
20260506095647 79 66 0.9 2.6 0.00 0.00 0.00 68 938.9
20260506095547 79 72 0.9 2.6 0.00 0.00 0.00 67 938.9
20260506095446 79 86 0.9 2.6 0.00 0.00 0.00 68 938.9
20260506095347 79 0 0.9 2.6 0.00 0.00 0.00 68 938.9
20260506095247 79 72 0.9 2.6 0.00 0.00 0.00 68 939.0
20260506095147 79 69 0.9 2.6 0.00 0.00 0.00 68 939.0
20260506095048 79 109 1.7 2.6 0.00 0.00 0.00 68 938.9
20260506094947 79 75 1.7 2.6 0.00 0.00 0.00 68 938.9
20260506094846 79 93 1.7 2.6 0.00 0.00 0.00 68 938.9
20260506094747 79 93 1.7 2.6 0.00 0.00 0.00 68 938.9
20260506094647 79 91 1.7 1.7 0.00 0.00 0.00 69 938.9
20260506094547 79 116 1.7 2.6 0.00 0.00 0.00 69 938.9
20260506094447 79 84 1.7 2.6 0.00 0.00 0.00 69 938.9
20260506094346 79 82 1.7 2.6 0.00 0.00 0.00 70 938.9
20260506094246 79 87 1.7 2.6 0.00 0.00 0.00 70 938.8
20260506094147 79 91 1.7 2.6 0.00 0.00 0.00 70 938.8
20260506094047 79 111 0.9 2.6 0.00 0.00 0.00 70 938.8
20260506093946 79 83 0.9 2.6 0.00 0.00 0.00 70 938.8
20260506093847 79 85 0.9 2.6 0.00 0.00 0.00 70 938.8
20260506093746 79 101 1.7 2.6 0.00 0.00 0.00 70 938.7
20260506093647 79 119 1.7 5.2 0.00 0.00 0.00 71 938.7
20260506093533 79 128 1.7 5.2 0.00 0.00 0.00 71 938.7
20260506093434 79 108 1.7 5.2 0.00 0.00 0.00 71 938.7
20260506093334 79 82 1.7 5.2 0.00 0.00 0.00 71 938.7
20260506093234 79 92 1.7 5.2 0.00 0.00 0.00 72 938.7
20260506093130 79 0 1.7 5.2 0.00 0.00 0.00 72 938.7
20260506093025 79 134 1.7 5.2 0.00 0.00 0.00 72 938.7
20260506092924 79 145 2.6 5.2 0.00 0.00 0.00 73 938.7
20260506092824 79 115 2.6 5.2 0.00 0.00 0.00 73 938.7
20260506092724 79 98 2.6 5.2 0.00 0.00 0.00 72 938.7
20260506092619 79 124 2.6 5.2 0.00 0.00 0.00 72 938.7
20260506092503 79 118 1.7 3.5 0.00 0.00 0.00 72 938.7
20260506092404 79 98 1.7 3.5 0.00 0.00 0.00 72 938.8
20260506092306 79 117 1.7 3.5 0.00 0.00 0.00 72 938.8
20260506092148 79 135 1.7 3.5 0.00 0.00 0.00 72 938.8
20260506092047 79 128 1.7 3.5 0.00 0.00 0.00 71 938.8
20260506091948 79 123 1.7 4.3 0.00 0.00 0.00 71 938.8
20260506091848 79 111 1.7 4.3 0.00 0.00 0.00 71 938.8
20260506091747 79 99 1.7 4.3 0.00 0.00 0.00 71 938.8
20260506091648 79 109 1.7 4.3 0.00 0.00 0.00 71 938.9
20260506091549 79 75 1.7 4.3 0.00 0.00 0.00 70 938.8
20260506091443 79 88 2.6 4.3 0.00 0.00 0.00 70 938.8
20260506091343 79 92 2.6 4.3 0.00 0.00 0.00 70 938.8
20260506091243 79 90 2.6 4.3 0.00 0.00 0.00 70 938.8
20260506091137 79 113 2.6 4.3 0.00 0.00 0.00 69 938.8
20260506091034 79 110 2.6 4.3 0.00 0.00 0.00 68 938.8
20260506090934 79 111 1.7 3.5 0.00 0.00 0.00 67 938.9
20260506090834 79 116 1.7 3.5 0.00 0.00 0.00 66 938.9
20260506090734 79 124 1.7 3.5 0.00 0.00 0.00 64 938.9
20260506090634 79 104 1.7 3.5 0.00 0.00 0.00 63 939.0
20260506090534 79 111 1.7 3.5 0.00 0.00 0.00 62 939.0
20260506090434 79 138 1.7 3.5 0.00 0.00 0.00 61 939.0
20260506090334 79 115 1.7 2.6 0.00 0.00 0.00 61 939.0
20260506090219 79 132 1.7 2.6 0.00 0.00 0.00 60 939.0
20260506090119 79 91 1.7 2.6 0.00 0.00 0.00 59 939.0
20260506090019 79 88 1.7 2.6 0.00 0.00 0.00 58 939.0
20260506085919 79 93 1.7 3.5 0.00 0.00 0.00 58 939.0
20260506085820 79 71 1.7 3.5 0.00 0.00 0.00 58 939.1
20260506085720 79 85 1.7 3.5 0.00 0.00 0.00 57 939.1
20260506085619 79 90 1.7 3.5 0.00 0.00 0.00 57 939.1
20260506085519 79 86 1.7 3.5 0.00 0.00 0.00 57 939.1
20260506085420 79 86 1.7 3.5 0.00 0.00 0.00 57 939.1
20260506085319 79 30 1.7 3.5 0.00 0.00 0.00 57 939.2
20260506085219 79 26 1.7 3.5 0.00 0.00 0.00 57 939.2
20260506085120 80 40 2.6 3.5 0.00 0.00 0.00 57 939.2
20260506085020 80 20 2.6 3.5 0.00 0.00 0.00 57 939.2
20260506084919 80 1 2.6 3.5 0.00 0.00 0.00 57 939.2
20260506084820 80 352 2.6 3.5 0.00 0.00 0.00 57 939.1
20260506084720 80 5 2.6 3.5 0.00 0.00 0.00 57 939.1
20260506084619 80 342 2.6 3.5 0.00 0.00 0.00 57 939.1
20260506084519 80 5 2.6 3.5 0.00 0.00 0.00 57 939.1
20260506084420 80 358 2.6 3.5 0.00 0.00 0.00 57 939.1
20260506084319 80 4 2.6 3.5 0.00 0.00 0.00 57 939.1
20260506084220 80 2 2.6 3.5 0.00 0.00 0.00 57 939.1
20260506084119 80 20 2.6 3.5 0.00 0.00 0.00 56 939.0
20260506084020 80 39 2.6 3.5 0.00 0.00 0.00 56 939.0
20260506083919 80 23 2.6 3.5 0.00 0.00 0.00 56 939.0
20260506083821 80 28 2.6 3.5 0.00 0.00 0.00 56 939.0
20260506083719 80 28 2.6 3.5 0.00 0.00 0.00 56 939.0
20260506083620 80 53 2.6 4.3 0.00 0.00 0.00 56 939.0
20260506083519 81 61 2.6 4.3 0.00 0.00 0.00 56 939.0
20260506083420 81 24 2.6 4.3 0.00 0.00 0.00 56 939.0
20260506083320 81 20 2.6 4.3 0.00 0.00 0.00 56 939.0
20260506083219 81 28 2.6 5.2 0.00 0.00 0.00 56 939.0
20260506083120 81 357 2.6 5.2 0.00 0.00 0.00 56 939.0
20260506083020 81 23 2.6 5.2 0.00 0.00 0.00 56 939.0
20260506082919 81 19 3.5 5.2 0.00 0.00 0.00 56 938.9
20260506082814 81 1 3.5 5.2 0.00 0.00 0.00 55 938.9
20260506082714 81 0 3.5 5.2 0.00 0.00 0.00 55 938.9
20260506082608 81 318 3.5 5.2 0.00 0.00 0.00 55 938.9
20260506082508 81 319 3.5 5.2 0.00 0.00 0.00 55 938.9
20260506082408 81 340 3.5 5.2 0.00 0.00 0.00 55 938.9
20260506082308 82 329 3.5 5.2 0.00 0.00 0.00 55 938.9
20260506082207 82 345 3.5 5.2 0.00 0.00 0.00 55 938.9
20260506082108 82 317 3.5 5.2 0.00 0.00 0.00 55 938.9
20260506082009 82 315 3.5 5.2 0.00 0.00 0.00 55 938.8
20260506081908 82 304 3.5 5.2 0.00 0.00 0.00 55 938.8
20260506081808 82 327 3.5 5.2 0.00 0.00 0.00 55 938.8
20260506081708 82 329 3.5 5.2 0.00 0.00 0.00 55 938.8
20260506081608 82 302 3.5 5.2 0.00 0.00 0.00 55 938.8
20260506081508 82 305 3.5 5.2 0.00 0.00 0.00 55 938.8
20260506081408 82 311 3.5 5.2 0.00 0.00 0.00 54 938.8
20260506081308 82 296 3.5 5.2 0.00 0.00 0.00 54 938.8
20260506081208 82 288 3.5 5.2 0.00 0.00 0.00 54 938.8
20260506081108 82 299 3.5 5.2 0.00 0.00 0.00 54 938.8
20260506081008 82 283 3.5 5.2 0.00 0.00 0.00 54 938.8
20260506080908 82 292 3.5 5.2 0.00 0.00 0.00 54 938.7
20260506080808 82 307 3.5 5.2 0.00 0.00 0.00 54 938.7
20260506080708 82 308 2.6 5.2 0.00 0.00 0.00 54 938.7
20260506080609 82 298 3.5 5.2 0.00 0.00 0.00 54 938.7
20260506080508 82 306 3.5 5.2 0.00 0.00 0.00 54 938.7
20260506080405 82 304 3.5 5.2 0.00 0.00 0.00 54 938.7
20260506080306 82 320 3.5 4.3 0.00 0.00 0.00 54 938.7
20260506080206 82 289 2.6 4.3 0.00 0.00 0.00 54 938.7
20260506080105 82 296 2.6 4.3 0.00 0.00 0.00 54 938.7
20260506073449 83 295 2.6 3.5 0.00 0.00 0.00 53 938.6
20260506073349 83 311 1.7 3.5 0.00 0.00 0.00 53 938.6
20260506073249 83 310 1.7 3.5 0.00 0.00 0.00 53 938.6
20260506073148 83 302 1.7 3.5 0.00 0.00 0.00 53 938.6
20260506073049 83 303 1.7 3.5 0.00 0.00 0.00 53 938.6
20260506072948 83 298 1.7 3.5 0.00 0.00 0.00 53 938.6
20260506072849 83 275 1.7 3.5 0.00 0.00 0.00 53 938.6
20260506072749 83 283 1.7 3.5 0.00 0.00 0.00 53 938.6
20260506072649 83 258 1.7 2.6 0.00 0.00 0.00 53 938.6
20260506072549 83 298 0.9 1.7 0.00 0.00 0.00 53 938.5
20260506072449 83 261 1.7 1.7 0.00 0.00 0.00 53 938.5
20260506072350 83 283 1.7 1.7 0.00 0.00 0.00 52 938.6
20260506072249 83 280 1.7 2.6 0.00 0.00 0.00 52 938.6
20260506072149 83 277 1.7 3.5 0.00 0.00 0.00 52 938.6
20260506072036 83 286 1.7 4.3 0.00 0.00 0.00 52 938.6
20260506071936 83 317 1.7 4.3 0.00 0.00 0.00 52 938.6
20260506071835 83 305 1.7 4.3 0.00 0.00 0.00 52 938.6
20260506071720 84 280 2.6 4.3 0.00 0.00 0.00 52 938.6
20260506071620 84 266 2.6 5.2 0.00 0.00 0.00 52 938.6
20260506071506 84 238 2.6 5.2 0.00 0.00 0.00 52 938.6
20260506071406 84 306 2.6 5.2 0.00 0.00 0.00 52 938.6
20260506071305 84 272 2.6 5.2 0.00 0.00 0.00 52 938.6
20260506071206 84 286 2.6 5.2 0.00 0.00 0.00 52 938.6
20260506071058 84 298 2.6 5.2 0.00 0.00 0.00 51 938.6
20260506070957 84 315 2.6 5.2 0.00 0.00 0.00 51 938.6
20260506070857 84 295 2.6 5.2 0.00 0.00 0.00 51 938.5
20260506070757 84 323 2.6 5.2 0.00 0.00 0.00 51 938.5
20260506070657 84 309 3.5 5.2 0.00 0.00 0.00 51 938.5
20260506070557 84 303 2.6 4.3 0.00 0.00 0.00 51 938.5
20260506070458 84 333 2.6 4.3 0.00 0.00 0.00 51 938.5
20260506070357 84 308 2.6 4.3 0.00 0.00 0.00 51 938.5
20260506070250 84 291 2.6 4.3 0.00 0.00 0.00 51 938.5
20260506070149 84 294 2.6 4.3 0.00 0.00 0.00 51 938.5
20260506062450 85 283 2.6 4.3 0.00 0.00 0.00 49 938.4
20260506062336 85 267 2.6 3.5 0.00 0.00 0.00 49 938.4
20260506062221 85 296 1.7 3.5 0.00 0.00 0.00 49 938.4
20260506062122 85 303 1.7 3.5 0.00 0.00 0.00 49 938.4
20260506062022 85 285 1.7 3.5 0.00 0.00 0.00 49 938.4
20260506061922 85 301 2.6 3.5 0.00 0.00 0.00 49 938.4
20260506061822 85 282 2.6 4.3 0.00 0.00 0.00 49 938.3
20260506061722 85 296 2.6 4.3 0.00 0.00 0.00 49 938.3
20260506061622 85 299 2.6 5.2 0.00 0.00 0.00 49 938.3
20260506061522 85 278 2.6 5.2 0.00 0.00 0.00 49 938.3
20260506061422 85 301 2.6 5.2 0.00 0.00 0.00 49 938.3
20260506061316 85 307 2.6 5.2 0.00 0.00 0.00 49 938.4
20260506061210 85 289 3.5 5.2 0.00 0.00 0.00 49 938.4
20260506061110 85 252 3.5 5.2 0.00 0.00 0.00 49 938.3
20260506061010 85 272 3.5 5.2 0.00 0.00 0.00 49 938.3
20260506060910 85 262 3.5 5.2 0.00 0.00 0.00 49 938.3
20260506060811 85 291 3.5 5.2 0.00 0.00 0.00 49 938.3
20260506060710 85 292 3.5 5.2 0.00 0.00 0.00 49 938.3
20260506060611 85 296 3.5 5.2 0.00 0.00 0.00 48 938.3
20260506060510 85 303 3.5 5.2 0.00 0.00 0.00 48 938.3
20260506060411 85 315 3.5 5.2 0.00 0.00 0.00 48 938.3
20260506060311 85 314 2.6 5.2 0.00 0.00 0.00 48 938.3
20260506060210 85 292 2.6 5.2 0.00 0.00 0.00 48 938.3
20260506060107 85 292 2.6 4.3 0.00 0.00 0.00 48 938.3
20260506051338 86 295 2.6 4.3 0.00 0.00 0.00 46 938.2
20260506051223 86 303 2.6 4.3 0.00 0.00 0.00 46 938.2
20260506051108 86 299 2.6 4.3 0.00 0.00 0.00 46 938.2
20260506051008 86 305 2.6 5.2 0.00 0.00 0.00 46 938.2
20260506050908 86 238 2.6 5.2 0.00 0.00 0.00 46 938.2
20260506050808 86 283 2.6 5.2 0.00 0.00 0.00 46 938.2
20260506050708 86 271 2.6 5.2 0.00 0.00 0.00 46 938.2
20260506050609 86 257 2.6 5.2 0.00 0.00 0.00 46 938.1
20260506050459 86 308 2.6 5.2 0.00 0.00 0.00 45 938.1
20260506050359 86 295 2.6 5.2 0.00 0.00 0.00 45 938.1
20260506050253 86 290 2.6 5.2 0.00 0.00 0.00 45 938.1
20260506050153 86 277 2.6 5.2 0.00 0.00 0.00 45 938.1
20260506045053 86 295 3.5 5.2 0.00 0.00 0.00 45 938.0
20260506044953 86 292 3.5 5.2 0.00 0.00 0.00 45 937.9
20260506044853 86 280 3.5 6.1 0.00 0.00 0.00 45 937.9
20260506044753 87 307 3.5 6.1 0.00 0.00 0.00 45 937.9
20260506044653 87 302 3.5 6.1 0.00 0.00 0.00 44 937.9
20260506044554 87 304 3.5 6.1 0.00 0.00 0.00 44 937.9
20260506044453 87 293 3.5 6.1 0.00 0.00 0.00 44 937.8
20260506044354 87 293 3.5 6.1 0.00 0.00 0.00 44 937.9
20260506044253 87 284 3.5 6.1 0.00 0.00 0.00 44 937.9
20260506044154 87 292 3.5 6.1 0.00 0.00 0.00 44 937.9
20260506044054 87 310 3.5 6.1 0.00 0.00 0.00 44 937.9
20260506043953 87 289 2.6 6.1 0.00 0.00 0.00 43 937.9
20260506043854 87 279 2.6 5.2 0.00 0.00 0.00 43 937.9
20260506043753 87 307 2.6 5.2 0.00 0.00 0.00 43 937.9
20260506043653 87 291 2.6 5.2 0.00 0.00 0.00 43 937.9
20260506043554 87 261 2.6 5.2 0.00 0.00 0.00 43 937.9
20260506043452 87 279 2.6 5.2 0.00 0.00 0.00 43 937.9
20260506043352 87 270 2.6 5.2 0.00 0.00 0.00 42 937.9
20260506043252 87 273 2.6 5.2 0.00 0.00 0.00 42 937.9
20260506043152 87 278 2.6 4.3 0.00 0.00 0.00 42 937.8
20260506043053 87 224 2.6 4.3 0.00 0.00 0.00 42 937.8
20260506042952 87 293 2.6 4.3 0.00 0.00 0.00 42 937.8
20260506042852 87 288 2.6 4.3 0.00 0.00 0.00 42 937.8
20260506042752 87 285 3.5 5.2 0.00 0.00 0.00 41 937.8
20260506042653 87 294 3.5 5.2 0.00 0.00 0.00 41 937.7
20260506042552 87 286 3.5 5.2 0.00 0.00 0.00 41 937.7
20260506042452 87 270 3.5 5.2 0.00 0.00 0.00 41 937.7
20260506042352 87 282 3.5 5.2 0.00 0.00 0.00 41 937.7
20260506042254 87 296 3.5 5.2 0.00 0.00 0.00 41 937.7
20260506042152 87 269 3.5 5.2 0.00 0.00 0.00 41 937.6
20260506042052 88 286 3.5 5.2 0.00 0.00 0.00 40 937.6
20260506041952 88 257 2.6 5.2 0.00 0.00 0.00 40 937.6
20260506041853 88 290 2.6 5.2 0.00 0.00 0.00 40 937.6
20260506041752 88 300 2.6 4.3 0.00 0.00 0.00 40 937.6
20260506041652 88 286 2.6 4.3 0.00 0.00 0.00 40 937.6
20260506041553 88 310 2.6 4.3 0.00 0.00 0.00 40 937.5
20260506041453 88 260 3.5 5.2 0.00 0.00 0.00 40 937.6
20260506041352 88 260 3.5 5.2 0.00 0.00 0.00 40 937.6
20260506041252 88 278 3.5 6.1 0.00 0.00 0.00 41 937.5
20260506041153 88 276 3.5 6.1 0.00 0.00 0.00 41 937.5
20260506041048 88 292 3.5 7.8 0.00 0.00 0.00 41 937.5
20260506040947 88 288 3.5 7.8 0.00 0.00 0.00 41 937.5
20260506040848 88 286 3.5 7.8 0.00 0.00 0.00 41 937.5
20260506040748 88 256 4.3 7.8 0.00 0.00 0.00 41 937.4
20260506040648 88 289 4.3 7.8 0.00 0.00 0.00 41 937.4
20260506040548 88 294 4.3 7.8 0.00 0.00 0.00 41 937.4
20260506040448 89 293 4.3 7.8 0.00 0.00 0.00 40 937.4
20260506040348 89 303 4.3 7.8 0.00 0.00 0.00 40 937.3
20260506040247 89 268 4.3 7.8 0.00 0.00 0.00 40 937.3
20260506040148 89 291 4.3 7.8 0.00 0.00 0.00 40 937.3
20260506040048 89 291 4.3 7.8 0.00 0.00 0.00 40 937.3
20260506035948 89 307 4.3 6.1 0.00 0.00 0.00 40 937.3
20260506035848 89 302 4.3 6.1 0.00 0.00 0.00 40 937.3
20260506035748 89 292 4.3 6.1 0.00 0.00 0.00 40 937.2
20260506035648 89 284 4.3 6.1 0.00 0.00 0.00 40 937.2
20260506035548 89 300 4.3 6.1 0.00 0.00 0.00 39 937.2
20260506035448 89 296 4.3 6.1 0.00 0.00 0.00 39 937.2
20260506035348 89 312 4.3 6.1 0.00 0.00 0.00 39 937.2
20260506035248 89 301 4.3 6.1 0.00 0.00 0.00 39 937.1
20260506035148 89 297 4.3 6.1 0.00 0.00 0.00 39 937.1
20260506035049 89 300 4.3 6.1 0.00 0.00 0.00 39 937.1
20260506034948 89 321 4.3 6.1 0.00 0.00 0.00 39 937.1
20260506034849 89 283 4.3 6.1 0.00 0.00 0.00 39 937.1
20260506034748 89 303 4.3 6.1 0.00 0.00 0.00 39 937.1
20260506034648 89 317 4.3 6.1 0.00 0.00 0.00 39 937.0
20260506034549 89 329 4.3 6.1 0.00 0.00 0.00 39 937.0
20260506034448 89 347 4.3 6.1 0.00 0.00 0.00 39 936.9
20260506034349 89 334 4.3 6.1 0.00 0.00 0.00 39 937.0
20260506034248 89 335 4.3 6.1 0.00 0.00 0.00 38 937.0
20260506034149 89 341 4.3 6.1 0.00 0.00 0.00 38 937.0
20260506034049 89 305 4.3 6.1 0.00 0.00 0.00 38 936.9
20260506033949 89 323 4.3 6.1 0.00 0.00 0.00 38 936.9
20260506033848 90 323 4.3 7.0 0.00 0.00 0.00 38 936.9
20260506033748 90 336 4.3 7.0 0.00 0.00 0.00 38 936.9
20260506033649 90 312 4.3 7.0 0.00 0.00 0.00 38 936.9
20260506033548 90 317 4.3 7.0 0.00 0.00 0.00 38 936.9
20260506033449 90 320 4.3 7.0 0.00 0.00 0.00 38 936.8
20260506033348 90 354 4.3 7.0 0.00 0.00 0.00 38 936.8
20260506033249 90 348 3.5 7.0 0.00 0.00 0.00 38 936.8
20260506033148 90 336 3.5 7.0 0.00 0.00 0.00 37 936.8
20260506033048 90 338 3.5 7.0 0.00 0.00 0.00 37 936.8
20260506032949 90 329 3.5 7.0 0.00 0.00 0.00 37 936.8
20260506032848 91 331 3.5 7.0 0.00 0.00 0.00 37 936.7
20260506032749 91 338 3.5 6.1 0.00 0.00 0.00 37 936.7
20260506032649 91 319 3.5 7.8 0.00 0.00 0.00 36 936.7
20260506032548 91 327 3.5 7.8 0.00 0.00 0.00 36 936.7
20260506032442 91 312 3.5 7.8 0.00 0.00 0.00 36 936.7
20260506032343 91 311 3.5 7.8 0.00 0.00 0.00 36 936.7
20260506032242 91 349 3.5 7.8 0.00 0.00 0.00 36 936.7
20260506032143 91 333 3.5 7.8 0.00 0.00 0.00 35 936.7
20260506032043 91 14 4.3 7.8 0.00 0.00 0.00 35 936.7
20260506031942 92 350 4.3 7.8 0.00 0.00 0.00 35 936.7
20260506031837 92 34 4.3 7.8 0.00 0.00 0.00 35 936.7
20260506031737 92 39 4.3 7.8 0.00 0.00 0.00 36 936.7
20260506031637 92 26 4.3 7.8 0.00 0.00 0.00 35 936.7
20260506031537 92 20 4.3 7.8 0.00 0.00 0.00 35 936.6
20260506031437 92 16 4.3 7.0 0.00 0.00 0.00 35 936.6
20260506031337 92 57 5.2 8.7 0.00 0.00 0.00 35 936.6
20260506031237 92 5 5.2 8.7 0.00 0.00 0.00 34 936.6
20260506031137 92 32 5.2 8.7 0.00 0.00 0.00 34 936.6
20260506031037 92 35 5.2 8.7 0.00 0.00 0.00 34 936.6
20260506030937 92 51 5.2 8.7 0.00 0.00 0.00 34 936.6
20260506030837 92 12 5.2 8.7 0.00 0.00 0.00 34 936.5
20260506030738 92 39 5.2 8.7 0.00 0.00 0.00 33 936.5
20260506030638 92 42 6.1 8.7 0.00 0.00 0.00 33 936.5
20260506030537 92 63 6.1 8.7 0.00 0.00 0.00 33 936.5
20260506030437 92 33 6.1 8.7 0.00 0.00 0.00 32 936.5
20260506030337 92 33 6.1 8.7 0.00 0.00 0.00 32 936.5
20260506030238 92 42 6.1 8.7 0.00 0.00 0.00 31 936.4
20260506030137 92 27 6.1 8.7 0.00 0.00 0.00 31 936.4
20260506030037 92 340 5.2 8.7 0.00 0.00 0.00 31 936.4
20260506025937 93 11 5.2 8.7 0.00 0.00 0.00 32 936.4
20260506025837 93 20 5.2 8.7 0.00 0.00 0.00 32 936.4
20260506025738 93 35 5.2 8.7 0.00 0.00 0.00 31 936.4
20260506025637 93 37 5.2 9.6 0.00 0.00 0.00 31 936.4
20260506025537 93 26 5.2 9.6 0.00 0.00 0.00 31 936.2
20260506025437 93 58 5.2 9.6 0.00 0.00 0.00 31 936.3
20260506025337 93 18 5.2 9.6 0.00 0.00 0.00 30 936.3
20260506025238 93 35 6.1 9.6 0.00 0.00 0.00 29 936.3
20260506025137 93 62 6.1 9.6 0.00 0.00 0.00 29 936.3
20260506025037 93 16 6.1 9.6 0.00 0.00 0.00 29 936.3
20260506024937 93 15 6.1 9.6 0.00 0.00 0.00 29 936.3
20260506024838 93 42 6.1 9.6 0.00 0.00 0.00 29 936.3
20260506024737 93 32 6.1 9.6 0.00 0.00 0.00 29 936.2
20260506024638 93 27 5.2 9.6 0.00 0.00 0.00 29 936.1
20260506024537 93 26 5.2 10.4 0.00 0.00 0.00 28 936.1
20260506024433 93 37 6.1 13.0 0.00 0.00 0.00 28 936.1
20260506024333 93 21 6.1 13.0 0.00 0.00 0.00 28 936.1
20260506024234 93 42 6.1 13.0 0.00 0.00 0.00 28 936.1
20260506024133 93 12 6.1 13.0 0.00 0.00 0.00 28 936.0
20260506024033 93 11 6.1 13.0 0.00 0.00 0.00 28 936.0
20260506023933 93 25 6.1 13.0 0.00 0.00 0.00 28 936.1
20260506023833 93 347 7.0 13.0 0.00 0.00 0.00 28 936.0
20260506023732 93 70 7.0 13.0 0.00 0.00 0.00 28 936.0
20260506023633 93 30 7.0 13.0 0.00 0.00 0.00 28 936.0
20260506023533 94 53 7.0 13.0 0.00 0.00 0.00 28 935.9
20260506023433 94 64 7.0 13.0 0.00 0.00 0.00 28 935.9
20260506023333 94 63 6.1 13.0 0.00 0.00 0.00 28 935.9
20260506023233 94 39 6.1 13.0 0.00 0.00 0.00 28 935.8
20260506023133 94 52 5.2 13.0 0.00 0.00 0.00 28 935.9
20260506023033 94 39 5.2 13.0 0.00 0.00 0.00 28 935.9
20260506022933 94 64 5.2 13.0 0.00 0.00 0.00 28 935.9
20260506022833 94 106 5.2 11.3 0.00 0.00 0.00 28 935.9
20260506022733 94 63 5.2 13.9 0.00 0.00 0.00 27 935.9
20260506022632 94 97 6.1 13.9 0.00 0.00 0.00 27 935.9
20260506022532 94 66 6.1 13.9 0.00 0.00 0.00 27 935.8
20260506022430 94 75 6.1 13.9 0.00 0.00 0.00 27 935.8
20260506022329 94 71 6.1 13.9 0.00 0.00 0.00 27 935.8
20260506022230 94 25 6.1 13.9 0.00 0.00 0.00 27 935.9
20260506022130 94 38 6.1 13.9 0.00 0.00 0.00 26 935.9
20260506022029 94 69 6.1 13.9 0.00 0.00 0.00 26 935.8
20260506021929 94 78 6.1 13.9 0.00 0.00 0.00 27 935.8
20260506021826 94 42 6.1 13.9 0.00 0.00 0.00 27 935.8
20260506021726 94 35 6.1 11.3 0.00 0.00 0.00 27 935.8
20260506021627 94 83 5.2 9.6 0.00 0.00 0.00 27 935.8
20260506021521 94 51 6.1 9.6 0.00 0.00 0.00 27 935.8
20260506021421 94 34 6.1 10.4 0.00 0.00 0.00 27 935.9
20260506021321 94 35 6.1 10.4 0.00 0.00 0.00 27 935.8
20260506021215 94 35 6.1 10.4 0.00 0.00 0.00 27 935.8
20260506021113 94 28 6.1 10.4 0.00 0.00 0.00 27 935.9
20260506021011 95 25 6.1 10.4 0.00 0.00 0.00 26 935.8
20260506020912 95 28 6.1 10.4 0.00 0.00 0.00 26 935.8
20260506020808 95 38 7.0 10.4 0.00 0.00 0.00 26 935.8
20260506020707 95 39 7.0 10.4 0.00 0.00 0.00 26 935.8
20260506020608 95 5 7.0 10.4 0.00 0.00 0.00 26 935.8
20260506020509 95 37 7.0 10.4 0.00 0.00 0.00 26 935.8
20260506020409 95 14 6.1 9.6 0.00 0.00 0.00 26 935.8
20260506020309 95 36 6.1 9.6 0.00 0.00 0.00 26 935.8
20260506020209 95 38 6.1 9.6 0.00 0.00 0.00 26 935.8
20260506020109 95 45 6.1 8.7 0.00 0.00 0.00 26 935.8
20260506020009 95 15 6.1 8.7 0.00 0.00 0.00 26 935.8
20260506015909 95 26 6.1 8.7 0.00 0.00 0.00 26 935.8
20260506015808 95 11 6.1 8.7 0.00 0.00 0.00 26 935.8
20260506015709 95 40 6.1 8.7 0.00 0.00 0.00 26 935.8
20260506015609 95 26 6.1 8.7 0.00 0.00 0.00 26 935.8
20260506015509 95 30 6.1 7.8 0.00 0.00 0.00 26 935.8
20260506015409 95 40 5.2 7.8 0.00 0.00 0.00 26 935.8
20260506015309 95 27 6.1 9.6 0.00 0.00 0.00 26 935.8
20260506015209 95 43 5.2 9.6 0.00 0.00 0.00 26 935.7
20260506015109 95 16 5.2 9.6 0.00 0.00 0.00 26 935.7
20260506015009 95 18 5.2 9.6 0.00 0.00 0.00 26 935.7
20260506014909 95 31 6.1 9.6 0.00 0.00 0.00 25 935.7
20260506014809 95 21 6.1 9.6 0.00 0.00 0.00 25 935.7
20260506014709 95 27 6.1 9.6 0.00 0.00 0.00 25 935.7
20260506014610 95 30 6.1 9.6 0.00 0.00 0.00 25 935.7
20260506014509 96 10 6.1 9.6 0.00 0.00 0.00 25 935.7
20260506014410 96 23 6.1 9.6 0.00 0.00 0.00 25 935.6
20260506014310 96 40 5.2 9.6 0.00 0.00 0.00 25 935.6
20260506014209 96 352 6.1 9.6 0.00 0.00 0.00 25 935.6
20260506014110 96 25 6.1 9.6 0.00 0.00 0.00 25 935.6
20260506014010 96 32 6.1 9.6 0.00 0.00 0.00 25 935.6
20260506013910 96 20 6.1 9.6 0.00 0.00 0.00 25 935.6
20260506013805 96 39 6.1 9.6 0.00 0.00 0.00 25 935.6
20260506013704 96 41 6.1 9.6 0.00 0.00 0.00 25 935.6
20260506013604 96 40 6.1 9.6 0.00 0.00 0.00 25 935.6
20260506013503 96 25 6.1 9.6 0.00 0.00 0.00 25 935.6
20260506013404 96 15 6.1 9.6 0.00 0.00 0.00 25 935.5
20260506013303 96 30 6.1 9.6 0.00 0.00 0.00 25 935.5
20260506013204 96 16 6.1 9.6 0.00 0.00 0.00 25 935.5
20260506013104 96 15 6.1 9.6 0.00 0.00 0.00 25 935.5
20260506013000 96 27 6.1 9.6 0.00 0.00 0.00 25 935.5
20260506012858 96 29 5.2 9.6 0.00 0.00 0.00 25 935.5
20260506012757 97 19 5.2 9.6 0.00 0.00 0.00 25 935.4
20260506012658 97 22 5.2 9.6 0.00 0.00 0.00 25 935.4
20260506012558 97 24 5.2 9.6 0.00 0.00 0.00 25 935.4
20260506012454 97 25 5.2 8.7 0.00 0.00 0.00 24 935.3
20260506012355 98 31 5.2 8.7 0.00 0.00 0.00 24 935.3
20260506012255 98 30 5.2 8.7 0.00 0.00 0.00 24 935.3
20260506012154 98 43 6.1 8.7 0.00 0.00 0.00 23 935.2
20260506012054 98 29 6.1 8.7 0.00 0.00 0.00 23 935.2
20260506011955 98 28 5.2 8.7 0.00 0.00 0.00 24 935.2
20260506011855 98 14 5.2 8.7 0.00 0.00 0.00 23 935.2
20260506011755 98 34 5.2 8.7 0.00 0.00 0.00 23 935.1
20260506011654 98 21 5.2 8.7 0.00 0.00 0.00 23 935.1
20260506011555 98 57 5.2 8.7 0.00 0.00 0.00 23 935.1
20260506011455 98 49 5.2 7.8 0.00 0.00 0.00 23 935.1
20260506011355 99 28 5.2 8.7 0.00 0.00 0.00 22 935.1
20260506011255 99 25 5.2 8.7 0.00 0.00 0.00 22 935.0
20260506011154 99 35 5.2 8.7 0.00 0.00 0.00 22 935.0
20260506011055 99 11 5.2 9.6 0.00 0.00 0.00 22 935.0
20260506010955 99 26 5.2 9.6 0.00 0.00 0.00 22 935.0
20260506010855 99 26 6.1 9.6 0.00 0.00 0.00 22 935.0
20260506010754 99 52 6.1 9.6 0.00 0.00 0.00 21 935.0
20260506010655 99 56 7.0 10.4 0.00 0.00 0.00 21 934.9
20260506010555 99 48 6.1 10.4 0.00 0.00 0.00 21 934.9
20260506010454 99 46 6.1 10.4 0.00 0.00 0.00 21 934.9
20260506010355 99 53 6.1 10.4 0.00 0.00 0.00 21 934.9
20260506010255 99 40 6.1 10.4 0.00 0.00 0.00 21 934.9
20260506010155 98 52 5.2 10.4 0.00 0.00 0.00 21 934.9
20260506010054 98 32 5.2 10.4 0.00 0.00 0.00 21 934.9
20260506005955 98 46 5.2 10.4 0.00 0.00 0.00 22 934.8
20260506005855 98 39 4.3 10.4 0.00 0.00 0.00 22 934.8
20260506005755 98 46 4.3 10.4 0.00 0.00 0.00 22 934.8
20260506005655 99 45 3.5 7.8 0.00 0.00 0.00 22 934.8
20260506005555 99 20 3.5 7.8 0.00 0.00 0.00 22 934.8
20260506005455 99 20 3.5 7.8 0.00 0.00 0.00 22 934.8
20260506005356 99 17 3.5 6.1 0.00 0.00 0.00 22 934.8
20260506005255 99 348 3.5 7.8 0.00 0.00 0.00 22 934.8
20260506005155 99 339 3.5 7.8 0.00 0.00 0.00 23 934.8
20260506005055 99 3 3.5 7.8 0.00 0.00 0.00 22 934.8
20260506004955 99 321 3.5 8.7 0.00 0.00 0.00 22 934.8
20260506004855 99 349 3.5 8.7 0.00 0.00 0.00 22 934.8
20260506004755 99 346 3.5 8.7 0.00 0.00 0.00 22 934.7
20260506004655 99 293 3.5 8.7 0.00 0.00 0.00 22 934.7
20260506004556 99 333 3.5 8.7 0.00 0.00 0.00 22 934.7
20260506004455 100 339 3.5 8.7 0.00 0.00 0.00 21 934.7
20260506004355 100 353 3.5 8.7 0.00 0.00 0.00 21 934.6
20260506004255 100 345 3.5 8.7 0.00 0.00 0.00 21 934.6
20260506004154 100 53 3.5 8.7 0.00 0.00 0.00 21 934.6
20260506004054 100 35 4.3 8.7 0.00 0.00 0.00 21 934.5
20260506003952 100 48 4.3 8.7 0.00 0.00 0.00 21 934.5
20260506003853 100 53 4.3 8.7 0.00 0.00 0.00 20 934.5
20260506003753 100 48 4.3 8.7 0.00 0.00 0.00 21 934.5
20260506003653 100 74 4.3 8.7 0.00 0.00 0.00 21 934.5
20260506003552 100 28 5.2 8.7 0.00 0.00 0.00 21 934.5
20260506003453 100 96 5.2 9.6 0.00 0.00 0.00 21 934.5
20260506003352 100 61 5.2 10.4 0.00 0.00 0.00 21 934.5
20260506003249 100 41 6.1 10.4 0.00 0.00 0.00 21 934.5
20260506003148 100 54 6.1 10.4 0.00 0.00 0.00 21 934.6
20260506003049 100 55 6.1 10.4 0.00 0.00 0.00 21 934.5
20260506002948 100 20 6.1 10.4 0.00 0.00 0.00 21 934.6
20260506002849 100 43 6.1 10.4 0.00 0.00 0.00 21 934.6
20260506002748 100 40 6.1 10.4 0.00 0.00 0.00 21 934.6
20260506002649 100 50 5.2 10.4 0.00 0.00 0.00 21 934.6
20260506002548 100 7 5.2 10.4 0.00 0.00 0.00 21 934.5
20260506002449 100 36 5.2 10.4 0.00 0.00 0.00 21 934.5
20260506002348 101 16 5.2 10.4 0.00 0.00 0.00 20 934.5
20260506002248 101 31 4.3 10.4 0.00 0.00 0.00 19 934.5
20260506002149 101 41 4.3 10.4 0.00 0.00 0.00 18 934.4
20260506002049 101 41 4.3 10.4 0.00 0.00 0.00 18 934.4
20260506001948 101 44 4.3 10.4 0.00 0.00 0.00 18 934.4
20260506001849 101 265 4.3 7.0 0.00 0.00 0.00 18 934.4
20260506001748 101 274 4.3 7.0 0.00 0.00 0.00 18 934.4
20260506001649 101 1 4.3 7.0 0.00 0.00 0.00 18 934.4
20260506001549 101 4 4.3 7.0 0.00 0.00 0.00 18 934.4
20260506001448 101 331 4.3 7.0 0.00 0.00 0.00 18 934.4
20260506001349 101 351 3.5 7.0 0.00 0.00 0.00 19 934.4
20260506001249 101 356 3.5 7.0 0.00 0.00 0.00 18 934.4
20260506001149 101 348 3.5 7.0 0.00 0.00 0.00 18 934.4
20260506001049 101 312 3.5 7.0 0.00 0.00 0.00 18 934.4
20260506000949 101 14 3.5 6.1 0.00 0.00 0.00 18 934.4
20260506000849 101 20 3.5 6.1 0.00 0.00 0.00 18 934.4
20260506000749 101 354 3.5 6.1 0.00 0.00 0.00 18 934.3
20260506000648 101 345 3.5 6.1 0.00 0.00 0.00 18 934.3
20260506000549 102 350 3.5 6.1 0.00 0.00 0.00 18 934.3
20260506000449 102 346 3.5 6.1 0.00 0.00 0.00 17 934.3
20260506000350 102 351 2.6 6.1 0.00 0.00 0.00 17 934.3
20260506000249 102 359 2.6 5.2 0.00 0.00 0.00 16 934.3
20260506000149 102 7 2.6 5.2 0.00 0.00 0.00 16 934.2
20260506000049 102 345 1.7 5.2 0.00 0.00 0.00 16 934.2
20260505235949 103 353 1.7 5.2 0.00 0.00 0.00 16 934.2
20260505235849 103 0 1.7 5.2 0.00 0.00 0.00 15 934.2
20260505235749 103 320 1.7 4.3 0.00 0.00 0.00 14 934.2
20260505235650 103 226 1.7 3.5 0.00 0.00 0.00 13 934.2
20260505235549 103 226 1.7 4.3 0.00 0.00 0.00 10 934.1
20260505235449 103 229 1.7 5.2 0.00 0.00 0.00 9 934.1
20260505235349 103 230 1.7 7.0 0.00 0.00 0.00 9 934.1
20260505235249 103 226 1.7 7.0 0.00 0.00 0.00 9 934.1
20260505235150 103 225 1.7 7.0 0.00 0.00 0.00 9 934.1
20260505235049 103 225 1.7 7.0 0.00 0.00 0.00 9 934.1
20260505234949 103 226 2.6 7.0 0.00 0.00 0.00 10 934.1
20260505234850 103 226 2.6 7.0 0.00 0.00 0.00 10 934.1
20260505234749 103 226 2.6 7.0 0.00 0.00 0.00 9 934.1
20260505234649 103 223 3.5 7.0 0.00 0.00 0.00 10 934.0
20260505234548 103 187 3.5 7.0 0.00 0.00 0.00 10 934.0
20260505234448 103 62 3.5 7.0 0.00 0.00 0.00 10 934.0
20260505234348 103 82 3.5 7.0 0.00 0.00 0.00 10 934.1
20260505234248 103 86 3.5 6.1 0.00 0.00 0.00 10 934.1
20260505234147 103 81 3.5 8.7 0.00 0.00 0.00 10 934.0
20260505234048 103 103 3.5 8.7 0.00 0.00 0.00 10 934.0
20260505233948 103 94 3.5 8.7 0.00 0.00 0.00 10 934.1
20260505233848 103 104 3.5 8.7 0.00 0.00 0.00 10 934.1
20260505233748 103 94 3.5 8.7 0.00 0.00 0.00 10 934.1
20260505233648 103 86 3.5 8.7 0.00 0.00 0.00 11 934.1
20260505233548 103 129 3.5 8.7 0.00 0.00 0.00 11 934.1
20260505233448 103 136 3.5 8.7 0.00 0.00 0.00 11 934.1
20260505233348 103 110 3.5 8.7 0.00 0.00 0.00 11 934.1
20260505233249 103 130 3.5 8.7 0.00 0.00 0.00 11 934.1
20260505233148 103 119 3.5 8.7 0.00 0.00 0.00 10 934.1
20260505233048 103 114 3.5 8.7 0.00 0.00 0.00 10 934.1
20260505232947 103 119 3.5 8.7 0.00 0.00 0.00 11 934.1
20260505232848 103 54 2.6 8.7 0.00 0.00 0.00 11 934.1
20260505232748 103 166 2.6 8.7 0.00 0.00 0.00 11 934.1
20260505232648 103 179 2.6 8.7 0.00 0.00 0.00 11 934.1
20260505232548 103 173 2.6 8.7 0.00 0.00 0.00 11 934.1
20260505232448 103 158 2.6 8.7 0.00 0.00 0.00 11 934.1
20260505232349 103 195 1.7 8.7 0.00 0.00 0.00 11 934.1
20260505232248 103 199 1.7 8.7 0.00 0.00 0.00 11 934.1
20260505232148 103 200 1.7 4.3 0.00 0.00 0.00 11 934.1
20260505232047 103 210 1.7 4.3 0.00 0.00 0.00 11 934.1
20260505231948 103 220 1.7 4.3 0.00 0.00 0.00 11 934.1
20260505231849 103 216 1.7 4.3 0.00 0.00 0.00 11 934.1
20260505231748 103 220 1.7 4.3 0.00 0.00 0.00 11 934.1
20260505231648 103 215 1.7 4.3 0.00 0.00 0.00 11 934.1
20260505231548 103 44 1.7 4.3 0.00 0.00 0.00 11 934.1
20260505231448 103 219 1.7 4.3 0.00 0.00 0.00 11 934.2
20260505231348 103 210 1.7 4.3 0.00 0.00 0.00 11 934.2
20260505231248 103 205 1.7 4.3 0.00 0.00 0.00 12 934.2
20260505231148 103 199 1.7 4.3 0.00 0.00 0.00 12 934.2
20260505231049 103 205 1.7 4.3 0.00 0.00 0.00 11 934.2
20260505230948 103 212 1.7 4.3 0.00 0.00 0.00 11 934.2
20260505230844 103 227 1.7 4.3 0.00 0.00 0.00 11 934.2
20260505230745 103 241 0.9 5.2 0.00 0.00 0.00 11 934.2
20260505230646 103 223 0.9 7.0 0.00 0.00 0.00 11 934.2
20260505230545 103 140 1.7 7.0 0.00 0.00 0.00 11 934.2
20260505230446 103 48 1.7 7.0 0.00 0.00 0.00 11 934.2
20260505230345 103 217 1.7 8.7 0.00 0.00 0.00 11 934.3
20260505230246 103 211 1.7 8.7 0.00 0.00 0.00 11 934.3
20260505230142 103 41 2.6 8.7 0.00 0.00 0.00 11 934.3
20260505230041 103 196 2.6 8.7 0.00 0.00 0.00 11 934.3
20260505225941 103 231 2.6 8.7 0.00 0.00 0.00 11 934.3
20260505225841 103 222 2.6 8.7 0.00 0.00 0.00 11 934.3
20260505225741 103 47 3.5 8.7 0.00 0.00 0.00 11 934.3
20260505225642 103 211 3.5 8.7 0.00 0.00 0.00 11 934.3
20260505225541 103 163 3.5 8.7 0.00 0.00 0.00 11 934.3
20260505225442 103 160 2.6 8.7 0.00 0.00 0.00 11 934.3
20260505225341 103 178 2.6 8.7 0.00 0.00 0.00 11 934.3
20260505225243 103 154 2.6 6.1 0.00 0.00 0.00 11 934.3
20260505225141 103 143 2.6 6.1 0.00 0.00 0.00 11 934.3
20260505225040 103 218 2.6 8.7 0.00 0.00 0.00 12 934.3
20260505224938 103 219 2.6 8.7 0.00 0.00 0.00 12 934.3
20260505224839 103 202 2.6 8.7 0.00 0.00 0.00 12 934.4
20260505224735 103 216 2.6 8.7 0.00 0.00 0.00 11 934.3
20260505224636 103 235 2.6 8.7 0.00 0.00 0.00 12 934.3
20260505224536 103 202 2.6 8.7 0.00 0.00 0.00 12 934.3
20260505224437 103 228 2.6 8.7 0.00 0.00 0.00 12 934.3
20260505224336 103 228 2.6 8.7 0.00 0.00 0.00 12 934.3
20260505224237 103 214 2.6 8.7 0.00 0.00 0.00 12 934.3
20260505224136 103 226 2.6 8.7 0.00 0.00 0.00 12 934.3
20260505224035 103 225 2.6 8.7 0.00 0.00 0.00 12 934.4
20260505223936 103 225 1.7 5.2 0.00 0.00 0.00 12 934.4
20260505223836 103 196 1.7 5.2 0.00 0.00 0.00 12 934.4
20260505223736 103 209 1.7 5.2 0.00 0.00 0.00 12 934.4
20260505223636 103 187 1.7 4.3 0.00 0.00 0.00 12 934.4
20260505223536 103 214 1.7 4.3 0.00 0.00 0.00 12 934.4
20260505223437 103 226 1.7 3.5 0.00 0.00 0.00 13 934.4
20260505223337 103 228 1.7 3.5 0.00 0.00 0.00 13 934.4
20260505223238 103 18 1.7 3.5 0.00 0.00 0.00 13 934.5
20260505223138 103 228 1.7 2.6 0.00 0.00 0.00 12 934.5
20260505223037 103 21 1.7 2.6 0.00 0.00 0.00 13 934.5
20260505222937 103 33 1.7 2.6 0.00 0.00 0.00 13 934.5
20260505222837 103 32 1.7 3.5 0.00 0.00 0.00 12 934.5
20260505222732 103 28 1.7 3.5 0.00 0.00 0.00 12 934.5
20260505222631 103 228 1.7 7.8 0.00 0.00 0.00 12 934.5
20260505222531 103 40 2.6 11.3 0.00 0.00 0.00 12 934.6
20260505222431 103 39 2.6 11.3 0.00 0.00 0.00 12 934.6
20260505222331 103 50 2.6 11.3 0.00 0.00 0.00 13 934.6
20260505222230 103 41 2.6 11.3 0.00 0.00 0.00 13 934.6
20260505222132 103 19 3.5 13.0 0.00 0.00 0.00 13 934.6
20260505222031 103 32 3.5 17.4 0.00 0.00 0.00 13 934.6
20260505221932 103 43 4.3 17.4 0.00 0.00 0.00 13 934.6
20260505221831 103 42 4.3 17.4 0.00 0.00 0.00 13 934.6
20260505221732 103 226 5.2 17.4 0.00 0.00 0.00 13 934.6
20260505221631 103 237 5.2 17.4 0.00 0.00 0.00 13 934.6
20260505221531 103 224 5.2 17.4 0.00 0.00 0.00 13 934.6
20260505221432 103 223 5.2 17.4 0.00 0.00 0.00 14 934.6
20260505221332 103 189 5.2 17.4 0.00 0.00 0.00 13 934.6
20260505221231 103 246 5.2 17.4 0.00 0.00 0.00 13 934.6
20260505221132 103 191 5.2 17.4 0.00 0.00 0.00 13 934.6
20260505221028 103 204 4.3 17.4 0.00 0.00 0.00 13 934.6
20260505220927 103 229 4.3 17.4 0.00 0.00 0.00 13 934.7
20260505220828 103 221 3.5 17.4 0.00 0.00 0.00 13 934.7
20260505220727 103 219 3.5 17.4 0.00 0.00 0.00 14 934.7
20260505220629 103 217 3.5 17.4 0.00 0.00 0.00 14 934.8
20260505220528 103 224 2.6 7.0 0.00 0.00 0.00 15 934.7
20260505220428 103 225 2.6 7.0 0.00 0.00 0.00 15 934.8
20260505220328 103 214 2.6 7.0 0.00 0.00 0.00 15 934.8
20260505220229 103 217 2.6 7.0 0.00 0.00 0.00 15 934.8
20260505220129 103 38 2.6 7.0 0.00 0.00 0.00 14 934.8
20260505220029 103 224 2.6 8.7 0.00 0.00 0.00 15 934.8
20260505215924 103 219 2.6 8.7 0.00 0.00 0.00 15 934.8
20260505215824 103 228 2.6 8.7 0.00 0.00 0.00 15 934.8
20260505215724 103 222 2.6 8.7 0.00 0.00 0.00 14 934.8
20260505215625 102 219 2.6 8.7 0.00 0.00 0.00 14 934.8
20260505215526 102 222 2.6 8.7 0.00 0.00 0.00 14 934.8
20260505215426 102 221 2.6 8.7 0.00 0.00 0.00 13 934.8
20260505215326 102 220 3.5 8.7 0.00 0.00 0.00 13 934.8
20260505215226 102 228 3.5 8.7 0.00 0.00 0.00 13 934.9
20260505215123 102 223 3.5 9.6 0.00 0.00 0.00 13 934.9
20260505215022 102 221 3.5 9.6 0.00 0.00 0.00 14 934.9
20260505214923 102 216 3.5 9.6 0.00 0.00 0.00 13 934.9
20260505214822 102 218 3.5 9.6 0.00 0.00 0.00 13 935.0
20260505214723 102 214 3.5 15.6 0.00 0.00 0.00 14 935.0
20260505214619 102 218 3.5 15.6 0.00 0.00 0.00 14 935.0
20260505214518 102 206 2.6 15.6 0.00 0.00 0.00 14 935.1
20260505214419 102 223 2.6 15.6 0.00 0.00 0.00 14 935.1
20260505214319 102 204 2.6 15.6 0.00 0.00 0.00 14 935.1
20260505214219 102 222 2.6 15.6 0.00 0.00 0.00 14 935.1
20260505214119 102 222 2.6 15.6 0.00 0.00 0.00 14 935.2
20260505214020 102 227 2.6 15.6 0.00 0.00 0.00 14 935.2
20260505213920 102 199 1.7 15.6 0.00 0.00 0.00 14 935.2
20260505213820 102 225 1.7 15.6 0.00 0.00 0.00 15 935.2
20260505213720 102 218 1.7 5.2 0.00 0.00 0.00 14 935.2
20260505213620 102 203 1.7 5.2 0.00 0.00 0.00 14 935.2
20260505213520 102 28 1.7 3.5 0.00 0.00 0.00 14 935.2
20260505213417 103 204 1.7 3.5 0.00 0.00 0.00 14 935.2